Time,TemperatureF,DewpointF,PressureIn,WindDirection,WindDirectionDegrees,WindSpeedMPH,WindSpeedGustMPH,Humidity,HourlyPrecipIn,Conditions,Clouds,dailyrainin,SoftwareType,DateUTC
2013-08-10 00:00:00,53.0,50.7,29.98,WSW,248,0.0,0.0,92,0.00,,,0.00,WeatherCatV1.20B785,2013-08-10 04:00:00,
2013-08-10 00:01:00,52.9,50.6,29.98,WSW,248,0.0,0.0,92,0.00,,,0.00,WeatherCatV1.20B785,2013-08-10 04:01:00,
2013-08-10 00:02:00,52.9,50.6,29.98,WSW,248,0.0,0.0,92,0.00,,,0.00,WeatherCatV1.20B785,2013-08-10 04:02:00,
2013-08-10 00:03:00,52.9,50.6,29.98,WSW,248,0.0,0.0,92,0.00,,,0.00,WeatherCatV1.20B785,2013-08-10 04:03:00,
2013-08-10 00:04:00,52.9,50.6,29.98,WSW,248,0.0,0.0,92,0.00,,,0.00,WeatherCatV1.20B785,2013-08-10 04:04:00,
2013-08-10 00:05:00,52.9,50.6,29.98,WSW,248,0.0,0.0,92,0.00,,,0.00,WeatherCatV1.20B785,2013-08-10 04:05:00,
2013-08-10 00:06:00,52.9,50.6,29.98,WSW,248,0.0,0.0,92,0.00,,,0.00,WeatherCatV1.20B785,2013-08-10 04:06:00,
2013-08-10 00:10:00,52.9,50.6,29.98,WSW,248,0.0,0.0,92,0.00,,,0.00,WeatherCatV1.20B785,2013-08-10 04:10:00,
2013-08-10 00:11:00,52.8,50.5,29.98,WSW,248,0.0,0.0,92,0.00,,,0.00,WeatherCatV1.20B785,2013-08-10 04:11:00,
2013-08-10 00:15:00,52.6,50.3,29.98,WSW,248,0.0,0.0,92,0.00,,,0.00,WeatherCatV1.20B785,2013-08-10 04:15:00,
2013-08-10 00:16:00,52.6,50.3,29.98,WSW,248,0.0,0.0,92,0.00,,,0.00,WeatherCatV1.20B785,2013-08-10 04:16:00,
2013-08-10 00:20:00,52.5,50.2,29.98,WSW,248,0.0,0.0,92,0.00,,,0.00,WeatherCatV1.20B785,2013-08-10 04:20:00,
2013-08-10 00:21:00,52.5,50.2,29.98,WSW,248,0.0,0.0,92,0.00,,,0.00,WeatherCatV1.20B785,2013-08-10 04:21:00,
2013-08-10 00:25:00,52.4,50.1,29.99,WSW,248,0.0,0.0,92,0.00,,,0.00,WeatherCatV1.20B785,2013-08-10 04:25:00,
2013-08-10 00:26:00,52.3,50.0,29.98,WSW,248,0.0,0.0,92,0.00,,,0.00,WeatherCatV1.20B785,2013-08-10 04:26:00,
2013-08-10 00:30:00,52.2,50.0,29.98,WSW,248,0.0,0.0,92,0.00,,,0.00,WeatherCatV1.20B785,2013-08-10 04:30:00,
2013-08-10 00:31:00,52.2,50.0,29.98,WSW,248,0.0,0.0,92,0.00,,,0.00,WeatherCatV1.20B785,2013-08-10 04:31:00,
2013-08-10 00:35:00,52.3,50.0,29.99,WSW,248,0.0,0.0,92,0.00,,,0.00,WeatherCatV1.20B785,2013-08-10 04:35:00,
2013-08-10 00:36:00,52.4,50.1,29.99,WSW,248,0.0,0.0,92,0.00,,,0.00,WeatherCatV1.20B785,2013-08-10 04:36:00,
2013-08-10 00:40:00,52.5,50.2,29.99,WSW,248,0.0,0.0,92,0.00,,,0.00,WeatherCatV1.20B785,2013-08-10 04:40:00,
2013-08-10 00:41:00,52.5,50.2,29.99,WSW,248,0.0,0.0,92,0.00,,,0.00,WeatherCatV1.20B785,2013-08-10 04:41:00,
2013-08-10 00:45:00,52.5,50.2,29.99,WSW,248,0.0,0.0,92,0.00,,,0.00,WeatherCatV1.20B785,2013-08-10 04:45:00,
2013-08-10 00:46:00,52.5,50.2,29.99,WSW,248,0.0,0.0,92,0.00,,,0.00,WeatherCatV1.20B785,2013-08-10 04:46:00,
2013-08-10 00:50:00,52.6,50.3,29.99,WSW,248,0.0,0.0,92,0.00,,,0.00,WeatherCatV1.20B785,2013-08-10 04:50:00,
2013-08-10 00:51:00,52.5,50.2,29.99,WSW,248,0.0,0.0,92,0.00,,,0.00,WeatherCatV1.20B785,2013-08-10 04:51:00,
2013-08-10 00:55:00,52.5,50.2,29.99,WSW,248,0.0,0.0,92,0.00,,,0.00,WeatherCatV1.20B785,2013-08-10 04:55:00,
2013-08-10 00:56:00,52.5,50.2,29.99,WSW,248,0.0,0.0,92,0.00,,,0.00,WeatherCatV1.20B785,2013-08-10 04:56:00,
2013-08-10 01:00:00,52.6,50.3,29.99,WSW,248,0.0,0.0,92,0.00,,,0.00,WeatherCatV1.20B785,2013-08-10 05:00:00,
2013-08-10 01:01:00,52.5,50.2,29.99,WSW,248,0.0,0.0,92,0.00,,,0.00,WeatherCatV1.20B785,2013-08-10 05:01:00,
2013-08-10 01:05:00,52.6,50.3,29.99,WSW,248,0.0,0.0,92,0.00,,,0.00,WeatherCatV1.20B785,2013-08-10 05:05:00,
2013-08-10 01:06:00,52.6,50.3,29.99,WSW,248,0.0,0.0,92,0.00,,,0.00,WeatherCatV1.20B785,2013-08-10 05:06:00,
2013-08-10 01:10:00,52.6,50.3,29.99,WSW,248,0.0,0.0,92,0.00,,,0.00,WeatherCatV1.20B785,2013-08-10 05:10:00,
2013-08-10 01:11:00,52.6,50.3,29.99,WSW,248,0.0,0.0,92,0.00,,,0.00,WeatherCatV1.20B785,2013-08-10 05:11:00,
2013-08-10 01:15:00,52.5,50.2,30.00,WSW,248,0.0,0.0,92,0.00,,,0.00,WeatherCatV1.20B785,2013-08-10 05:15:00,
2013-08-10 01:16:00,52.5,50.2,29.99,WSW,248,0.0,0.0,92,0.00,,,0.00,WeatherCatV1.20B785,2013-08-10 05:16:00,
2013-08-10 01:20:00,52.5,50.2,30.00,WSW,248,0.0,0.0,92,0.00,,,0.00,WeatherCatV1.20B785,2013-08-10 05:20:00,
2013-08-10 01:21:00,52.6,50.3,30.00,WSW,248,0.0,0.0,92,0.00,,,0.00,WeatherCatV1.20B785,2013-08-10 05:21:00,
2013-08-10 01:25:00,52.5,50.2,30.00,WSW,248,0.0,0.0,92,0.00,,,0.00,WeatherCatV1.20B785,2013-08-10 05:25:00,
2013-08-10 01:26:00,52.4,50.1,30.00,WSW,248,0.0,0.0,92,0.00,,,0.00,WeatherCatV1.20B785,2013-08-10 05:26:00,
2013-08-10 01:30:00,52.3,50.0,30.00,WSW,248,0.0,0.0,92,0.00,,,0.00,WeatherCatV1.20B785,2013-08-10 05:30:00,
2013-08-10 01:31:00,52.2,50.0,30.00,WSW,248,0.0,0.0,92,0.00,,,0.00,WeatherCatV1.20B785,2013-08-10 05:31:00,
2013-08-10 01:35:00,52.1,49.8,30.00,WSW,248,0.0,0.0,92,0.00,,,0.00,WeatherCatV1.20B785,2013-08-10 05:35:00,
2013-08-10 01:36:00,52.0,49.8,30.00,WSW,248,0.0,0.0,92,0.00,,,0.00,WeatherCatV1.20B785,2013-08-10 05:36:00,
2013-08-10 01:40:00,52.0,49.8,30.00,WSW,248,0.0,0.0,92,0.00,,,0.00,WeatherCatV1.20B785,2013-08-10 05:40:00,
2013-08-10 01:41:00,52.1,49.8,30.00,WSW,248,0.0,0.0,92,0.00,,,0.00,WeatherCatV1.20B785,2013-08-10 05:41:00,
2013-08-10 01:45:00,52.1,50.1,30.00,WSW,248,0.0,0.0,93,0.00,,,0.00,WeatherCatV1.20B785,2013-08-10 05:45:00,
2013-08-10 01:46:00,52.0,50.0,30.00,WSW,248,0.0,0.0,93,0.00,,,0.00,WeatherCatV1.20B785,2013-08-10 05:46:00,
2013-08-10 01:50:00,51.9,50.0,30.00,WSW,248,0.0,0.0,93,0.00,,,0.00,WeatherCatV1.20B785,2013-08-10 05:50:00,
2013-08-10 01:51:00,51.8,49.8,30.00,WSW,248,0.0,0.0,93,0.00,,,0.00,WeatherCatV1.20B785,2013-08-10 05:51:00,
2013-08-10 01:55:00,51.8,49.5,30.00,WSW,248,0.0,0.0,92,0.00,,,0.00,WeatherCatV1.20B785,2013-08-10 05:55:00,
2013-08-10 01:56:00,51.8,49.5,30.00,WSW,248,0.0,0.0,92,0.00,,,0.00,WeatherCatV1.20B785,2013-08-10 05:56:00,
2013-08-10 02:00:00,51.7,49.4,30.00,WSW,248,0.0,0.0,92,0.00,,,0.00,WeatherCatV1.20B785,2013-08-10 06:00:00,
2013-08-10 02:01:00,51.6,49.3,30.00,WSW,248,0.0,0.0,92,0.00,,,0.00,WeatherCatV1.20B785,2013-08-10 06:01:00,
2013-08-10 02:05:00,51.6,49.3,30.00,WSW,248,0.0,0.0,92,0.00,,,0.00,WeatherCatV1.20B785,2013-08-10 06:05:00,
2013-08-10 02:06:00,51.6,49.3,30.00,WSW,248,0.0,0.0,92,0.00,,,0.00,WeatherCatV1.20B785,2013-08-10 06:06:00,
2013-08-10 02:10:00,51.7,49.4,30.00,WSW,248,0.0,0.0,92,0.00,,,0.00,WeatherCatV1.20B785,2013-08-10 06:10:00,
2013-08-10 02:11:00,51.8,49.5,30.00,WSW,248,0.0,0.0,92,0.00,,,0.00,WeatherCatV1.20B785,2013-08-10 06:11:00,
2013-08-10 02:15:00,51.8,49.8,30.00,WSW,248,0.0,0.0,93,0.00,,,0.00,WeatherCatV1.20B785,2013-08-10 06:15:00,
2013-08-10 02:16:00,51.8,49.8,30.00,WSW,248,0.0,0.0,93,0.00,,,0.00,WeatherCatV1.20B785,2013-08-10 06:16:00,
2013-08-10 02:20:00,51.8,49.8,30.00,WSW,248,0.0,0.0,93,0.00,,,0.00,WeatherCatV1.20B785,2013-08-10 06:20:00,
2013-08-10 02:21:00,51.8,49.8,30.00,WSW,248,0.0,0.0,93,0.00,,,0.00,WeatherCatV1.20B785,2013-08-10 06:21:00,
2013-08-10 02:25:00,52.1,50.1,30.00,WSW,248,0.0,0.0,93,0.00,,,0.00,WeatherCatV1.20B785,2013-08-10 06:25:00,
2013-08-10 02:26:00,52.1,50.1,30.00,WSW,248,0.0,0.0,93,0.00,,,0.00,WeatherCatV1.20B785,2013-08-10 06:26:00,
2013-08-10 02:30:00,52.0,50.0,30.00,WSW,248,0.0,0.0,93,0.00,,,0.00,WeatherCatV1.20B785,2013-08-10 06:30:00,
2013-08-10 02:31:00,52.0,50.0,30.00,WSW,248,0.0,0.0,93,0.00,,,0.00,WeatherCatV1.20B785,2013-08-10 06:31:00,
2013-08-10 02:35:00,52.0,50.0,30.00,WSW,248,0.0,0.0,93,0.00,,,0.00,WeatherCatV1.20B785,2013-08-10 06:35:00,
2013-08-10 02:36:00,51.9,49.9,30.00,WSW,248,0.0,0.0,93,0.00,,,0.00,WeatherCatV1.20B785,2013-08-10 06:36:00,
2013-08-10 02:40:00,51.9,50.0,30.00,WSW,248,0.0,0.0,93,0.00,,,0.00,WeatherCatV1.20B785,2013-08-10 06:40:00,
2013-08-10 02:41:00,51.9,49.9,30.00,WSW,248,0.0,0.0,93,0.00,,,0.00,WeatherCatV1.20B785,2013-08-10 06:41:00,
2013-08-10 02:45:00,51.9,50.0,30.00,WSW,248,0.0,0.0,93,0.00,,,0.00,WeatherCatV1.20B785,2013-08-10 06:45:00,
2013-08-10 02:46:00,51.9,49.9,30.00,WSW,248,0.0,0.0,93,0.00,,,0.00,WeatherCatV1.20B785,2013-08-10 06:46:00,
2013-08-10 02:50:00,51.9,50.0,30.00,WSW,248,0.0,0.0,93,0.00,,,0.00,WeatherCatV1.20B785,2013-08-10 06:50:00,
2013-08-10 02:51:00,52.0,50.0,30.00,WSW,248,0.0,0.0,93,0.00,,,0.00,WeatherCatV1.20B785,2013-08-10 06:51:00,
2013-08-10 02:55:00,52.0,50.0,30.00,WSW,248,0.0,0.0,93,0.00,,,0.00,WeatherCatV1.20B785,2013-08-10 06:55:00,
2013-08-10 02:56:00,52.0,50.0,30.00,WSW,248,0.0,0.0,93,0.00,,,0.00,WeatherCatV1.20B785,2013-08-10 06:56:00,
2013-08-10 03:00:00,52.0,50.0,30.00,WSW,248,0.0,0.0,93,0.00,,,0.00,WeatherCatV1.20B785,2013-08-10 07:00:00,
2013-08-10 03:01:00,52.1,50.1,30.00,WSW,248,0.0,0.0,93,0.00,,,0.00,WeatherCatV1.20B785,2013-08-10 07:01:00,
2013-08-10 03:05:00,52.0,50.0,30.00,WSW,248,0.0,0.0,93,0.00,,,0.00,WeatherCatV1.20B785,2013-08-10 07:05:00,
2013-08-10 03:06:00,52.0,50.0,30.00,WSW,248,0.0,0.0,93,0.00,,,0.00,WeatherCatV1.20B785,2013-08-10 07:06:00,
2013-08-10 03:10:00,52.0,50.0,30.00,WSW,248,0.0,0.0,93,0.00,,,0.00,WeatherCatV1.20B785,2013-08-10 07:10:00,
2013-08-10 03:11:00,52.0,50.0,30.00,WSW,248,0.0,0.0,93,0.00,,,0.00,WeatherCatV1.20B785,2013-08-10 07:11:00,
2013-08-10 03:15:00,52.0,50.0,30.00,WSW,248,0.0,0.0,93,0.00,,,0.00,WeatherCatV1.20B785,2013-08-10 07:15:00,
2013-08-10 03:16:00,52.0,50.0,30.00,WSW,248,0.0,0.0,93,0.00,,,0.00,WeatherCatV1.20B785,2013-08-10 07:16:00,
2013-08-10 03:20:00,52.1,50.1,30.00,WSW,248,0.0,0.0,93,0.00,,,0.00,WeatherCatV1.20B785,2013-08-10 07:20:00,
2013-08-10 03:21:00,52.1,50.1,30.00,WSW,248,0.0,0.0,93,0.00,,,0.00,WeatherCatV1.20B785,2013-08-10 07:21:00,
2013-08-10 03:25:00,52.2,50.2,30.00,WSW,248,0.0,0.0,93,0.00,,,0.00,WeatherCatV1.20B785,2013-08-10 07:25:00,
2013-08-10 03:26:00,52.3,50.3,30.00,WSW,248,0.0,0.0,93,0.00,,,0.00,WeatherCatV1.20B785,2013-08-10 07:26:00,
2013-08-10 03:30:00,52.7,50.7,30.00,WSW,248,0.0,0.0,93,0.00,,,0.00,WeatherCatV1.20B785,2013-08-10 07:30:00,
2013-08-10 03:31:00,52.8,50.8,30.00,WSW,248,0.0,0.0,93,0.00,,,0.00,WeatherCatV1.20B785,2013-08-10 07:31:00,
2013-08-10 03:35:00,52.9,50.9,30.00,WSW,248,0.0,0.0,93,0.00,,,0.00,WeatherCatV1.20B785,2013-08-10 07:35:00,
2013-08-10 03:36:00,52.9,50.9,30.00,WSW,248,0.0,0.0,93,0.00,,,0.00,WeatherCatV1.20B785,2013-08-10 07:36:00,
2013-08-10 03:40:00,52.8,50.8,30.00,WSW,248,0.0,0.0,93,0.00,,,0.00,WeatherCatV1.20B785,2013-08-10 07:40:00,
2013-08-10 03:41:00,52.8,50.8,30.00,WSW,248,0.0,0.0,93,0.00,,,0.00,WeatherCatV1.20B785,2013-08-10 07:41:00,
2013-08-10 03:45:00,52.5,50.5,30.00,WSW,248,0.0,0.0,93,0.00,,,0.00,WeatherCatV1.20B785,2013-08-10 07:45:00,
2013-08-10 03:46:00,52.4,50.4,30.00,WSW,248,0.0,0.0,93,0.00,,,0.00,WeatherCatV1.20B785,2013-08-10 07:46:00,
2013-08-10 03:50:00,52.1,50.1,30.00,WSW,248,0.0,0.0,93,0.00,,,0.00,WeatherCatV1.20B785,2013-08-10 07:50:00,
2013-08-10 03:51:00,52.1,50.1,30.00,WSW,248,0.0,0.0,93,0.00,,,0.00,WeatherCatV1.20B785,2013-08-10 07:51:00,
2013-08-10 03:55:00,52.0,50.0,30.00,WSW,248,0.0,0.0,93,0.00,,,0.00,WeatherCatV1.20B785,2013-08-10 07:55:00,
2013-08-10 03:56:00,52.0,50.0,30.00,WSW,248,0.0,0.0,93,0.00,,,0.00,WeatherCatV1.20B785,2013-08-10 07:56:00,
2013-08-10 04:00:00,52.2,50.2,30.00,WSW,248,0.0,0.0,93,0.00,,,0.00,WeatherCatV1.20B785,2013-08-10 08:00:00,
2013-08-10 04:01:00,52.3,50.3,30.00,WSW,248,0.0,0.0,93,0.00,,,0.00,WeatherCatV1.20B785,2013-08-10 08:01:00,
2013-08-10 04:05:00,52.3,50.3,30.01,WSW,248,0.0,0.0,93,0.00,,,0.00,WeatherCatV1.20B785,2013-08-10 08:05:00,
2013-08-10 04:06:00,52.3,50.3,30.01,WSW,248,0.0,0.0,93,0.00,,,0.00,WeatherCatV1.20B785,2013-08-10 08:06:00,
2013-08-10 04:10:00,52.1,50.1,30.01,WSW,248,0.0,0.0,93,0.00,,,0.00,WeatherCatV1.20B785,2013-08-10 08:10:00,
2013-08-10 04:11:00,52.1,50.1,30.01,WSW,248,0.0,0.0,93,0.00,,,0.00,WeatherCatV1.20B785,2013-08-10 08:11:00,
2013-08-10 04:15:00,51.8,49.8,30.01,WSW,248,0.0,0.0,93,0.00,,,0.00,WeatherCatV1.20B785,2013-08-10 08:15:00,
2013-08-10 04:16:00,51.8,49.8,30.01,WSW,248,0.0,0.0,93,0.00,,,0.00,WeatherCatV1.20B785,2013-08-10 08:16:00,
2013-08-10 04:20:00,51.6,49.6,30.01,WSW,248,0.0,0.0,93,0.00,,,0.00,WeatherCatV1.20B785,2013-08-10 08:20:00,
2013-08-10 04:21:00,51.6,49.6,30.01,WSW,248,0.0,0.0,93,0.00,,,0.00,WeatherCatV1.20B785,2013-08-10 08:21:00,
2013-08-10 04:25:00,51.4,49.4,30.01,WSW,248,0.0,0.0,93,0.00,,,0.00,WeatherCatV1.20B785,2013-08-10 08:25:00,
2013-08-10 04:26:00,51.4,49.4,30.01,WSW,248,0.0,0.0,93,0.00,,,0.00,WeatherCatV1.20B785,2013-08-10 08:26:00,
2013-08-10 04:30:00,51.3,49.3,30.01,WSW,248,0.0,0.0,93,0.00,,,0.00,WeatherCatV1.20B785,2013-08-10 08:30:00,
2013-08-10 04:31:00,51.4,49.4,30.01,WSW,248,0.0,0.0,93,0.00,,,0.00,WeatherCatV1.20B785,2013-08-10 08:31:00,
2013-08-10 04:35:00,51.4,49.4,30.01,WSW,248,0.0,0.0,93,0.00,,,0.00,WeatherCatV1.20B785,2013-08-10 08:35:00,
2013-08-10 04:36:00,51.4,49.4,30.01,WSW,248,0.0,0.0,93,0.00,,,0.00,WeatherCatV1.20B785,2013-08-10 08:36:00,
2013-08-10 04:40:00,51.6,49.6,30.01,WSW,248,0.0,0.0,93,0.00,,,0.00,WeatherCatV1.20B785,2013-08-10 08:40:00,
2013-08-10 04:41:00,51.6,49.6,30.01,WSW,248,0.0,0.0,93,0.00,,,0.00,WeatherCatV1.20B785,2013-08-10 08:41:00,
2013-08-10 04:45:00,51.6,49.6,30.01,WSW,248,0.0,0.0,93,0.00,,,0.00,WeatherCatV1.20B785,2013-08-10 08:45:00,
2013-08-10 04:46:00,51.5,49.5,30.01,WSW,248,0.0,0.0,93,0.00,,,0.00,WeatherCatV1.20B785,2013-08-10 08:46:00,
2013-08-10 04:50:00,51.4,49.4,30.01,WSW,248,0.0,0.0,93,0.00,,,0.00,WeatherCatV1.20B785,2013-08-10 08:50:00,
2013-08-10 04:51:00,51.3,49.3,30.01,WSW,248,0.0,0.0,93,0.00,,,0.00,WeatherCatV1.20B785,2013-08-10 08:51:00,
2013-08-10 04:55:00,51.1,49.2,30.01,WSW,248,0.0,0.0,93,0.00,,,0.00,WeatherCatV1.20B785,2013-08-10 08:55:00,
2013-08-10 04:56:00,51.0,49.0,30.02,WSW,248,0.0,0.0,93,0.00,,,0.00,WeatherCatV1.20B785,2013-08-10 08:56:00,
2013-08-10 05:00:00,51.1,49.2,30.02,WSW,248,0.0,0.0,93,0.00,,,0.00,WeatherCatV1.20B785,2013-08-10 09:00:00,
2013-08-10 05:01:00,51.0,49.0,30.02,WSW,248,0.0,0.0,93,0.00,,,0.00,WeatherCatV1.20B785,2013-08-10 09:01:00,
2013-08-10 05:05:00,51.2,49.2,30.02,WSW,248,0.0,0.0,93,0.00,,,0.00,WeatherCatV1.20B785,2013-08-10 09:05:00,
2013-08-10 05:06:00,51.2,49.2,30.02,WSW,248,0.0,0.0,93,0.00,,,0.00,WeatherCatV1.20B785,2013-08-10 09:06:00,
2013-08-10 05:10:00,51.1,49.2,30.02,WSW,248,0.0,0.0,93,0.00,,,0.00,WeatherCatV1.20B785,2013-08-10 09:10:00,
2013-08-10 05:11:00,51.0,49.0,30.02,WSW,248,0.0,0.0,93,0.00,,,0.00,WeatherCatV1.20B785,2013-08-10 09:11:00,
2013-08-10 05:15:00,50.9,49.0,30.02,WSW,248,0.0,0.0,93,0.00,,,0.00,WeatherCatV1.20B785,2013-08-10 09:15:00,
2013-08-10 05:16:00,50.8,48.8,30.02,WSW,248,0.0,0.0,93,0.00,,,0.00,WeatherCatV1.20B785,2013-08-10 09:16:00,
2013-08-10 05:20:00,50.7,48.8,30.02,WSW,248,0.0,0.0,93,0.00,,,0.00,WeatherCatV1.20B785,2013-08-10 09:20:00,
2013-08-10 05:21:00,50.7,48.8,30.02,WSW,248,0.0,0.0,93,0.00,,,0.00,WeatherCatV1.20B785,2013-08-10 09:21:00,
2013-08-10 05:25:00,50.7,48.8,30.02,WSW,248,0.0,0.0,93,0.00,,,0.00,WeatherCatV1.20B785,2013-08-10 09:25:00,
2013-08-10 05:26:00,50.8,48.8,30.02,WSW,248,0.0,0.0,93,0.00,,,0.00,WeatherCatV1.20B785,2013-08-10 09:26:00,
2013-08-10 05:30:00,50.8,48.8,30.02,WSW,248,0.0,0.0,93,0.00,,,0.00,WeatherCatV1.20B785,2013-08-10 09:30:00,
2013-08-10 05:31:00,50.8,48.8,30.02,WSW,248,0.0,0.0,93,0.00,,,0.00,WeatherCatV1.20B785,2013-08-10 09:31:00,
2013-08-10 05:35:00,50.8,48.8,30.02,WSW,248,0.0,0.0,93,0.00,,,0.00,WeatherCatV1.20B785,2013-08-10 09:35:00,
2013-08-10 05:36:00,50.8,48.8,30.02,WSW,248,0.0,0.0,93,0.00,,,0.00,WeatherCatV1.20B785,2013-08-10 09:36:00,
2013-08-10 05:40:00,50.8,48.8,30.02,WSW,248,0.0,0.0,93,0.00,,,0.00,WeatherCatV1.20B785,2013-08-10 09:40:00,
2013-08-10 05:41:00,50.8,48.8,30.02,WSW,248,0.0,0.0,93,0.00,,,0.00,WeatherCatV1.20B785,2013-08-10 09:41:00,
2013-08-10 05:45:00,50.6,48.7,30.03,WSW,248,0.0,0.0,93,0.00,,,0.00,WeatherCatV1.20B785,2013-08-10 09:45:00,
2013-08-10 05:46:00,50.6,48.7,30.03,WSW,248,0.0,0.0,93,0.00,,,0.00,WeatherCatV1.20B785,2013-08-10 09:46:00,
2013-08-10 05:50:00,50.5,48.5,30.03,WSW,248,0.0,0.0,93,0.00,,,0.00,WeatherCatV1.20B785,2013-08-10 09:50:00,
2013-08-10 05:51:00,50.5,48.5,30.03,WSW,248,0.0,0.0,93,0.00,,,0.00,WeatherCatV1.20B785,2013-08-10 09:51:00,
2013-08-10 05:55:00,50.5,48.5,30.03,WSW,248,0.0,0.0,93,0.00,,,0.00,WeatherCatV1.20B785,2013-08-10 09:55:00,
2013-08-10 05:56:00,50.5,48.5,30.03,WSW,248,0.0,0.0,93,0.00,,,0.00,WeatherCatV1.20B785,2013-08-10 09:56:00,
2013-08-10 06:00:00,50.5,48.5,30.03,WSW,248,0.0,0.0,93,0.00,,,0.00,WeatherCatV1.20B785,2013-08-10 10:00:00,
2013-08-10 06:01:00,50.5,48.5,30.03,WSW,248,0.0,0.0,93,0.00,,,0.00,WeatherCatV1.20B785,2013-08-10 10:01:00,
2013-08-10 06:05:00,50.7,48.8,30.03,WSW,248,0.0,0.0,93,0.00,,,0.00,WeatherCatV1.20B785,2013-08-10 10:05:00,
2013-08-10 06:06:00,50.6,48.7,30.03,WSW,248,0.0,0.0,93,0.00,,,0.00,WeatherCatV1.20B785,2013-08-10 10:06:00,
2013-08-10 06:10:00,50.7,48.8,30.03,WSW,248,0.0,0.0,93,0.00,,,0.00,WeatherCatV1.20B785,2013-08-10 10:10:00,
2013-08-10 06:11:00,50.7,48.8,30.03,WSW,248,0.0,0.0,93,0.00,,,0.00,WeatherCatV1.20B785,2013-08-10 10:11:00,
2013-08-10 06:15:00,50.7,48.8,30.03,WSW,248,0.0,0.0,93,0.00,,,0.00,WeatherCatV1.20B785,2013-08-10 10:15:00,
2013-08-10 06:16:00,50.7,48.8,30.03,WSW,248,0.0,0.0,93,0.00,,,0.00,WeatherCatV1.20B785,2013-08-10 10:16:00,
2013-08-10 06:20:00,50.7,48.8,30.04,WSW,248,0.0,0.0,93,0.00,,,0.00,WeatherCatV1.20B785,2013-08-10 10:20:00,
2013-08-10 06:21:00,50.6,48.7,30.04,WSW,248,0.0,0.0,93,0.00,,,0.00,WeatherCatV1.20B785,2013-08-10 10:21:00,
2013-08-10 06:25:00,50.5,48.5,30.04,WSW,248,0.0,0.0,93,0.00,,,0.00,WeatherCatV1.20B785,2013-08-10 10:25:00,
2013-08-10 06:26:00,50.4,48.5,30.04,WSW,248,0.0,0.0,93,0.00,,,0.00,WeatherCatV1.20B785,2013-08-10 10:26:00,
2013-08-10 06:30:00,50.4,48.5,30.04,WSW,248,0.0,0.0,93,0.00,,,0.00,WeatherCatV1.20B785,2013-08-10 10:30:00,
2013-08-10 06:31:00,50.3,48.3,30.04,WSW,248,0.0,0.0,93,0.00,,,0.00,WeatherCatV1.20B785,2013-08-10 10:31:00,
2013-08-10 06:35:00,50.3,48.3,30.04,WSW,248,0.0,0.0,93,0.00,,,0.00,WeatherCatV1.20B785,2013-08-10 10:35:00,
2013-08-10 06:36:00,50.3,48.3,30.04,WSW,248,0.0,0.0,93,0.00,,,0.00,WeatherCatV1.20B785,2013-08-10 10:36:00,
2013-08-10 06:40:00,50.4,48.5,30.04,WSW,248,0.0,0.0,93,0.00,,,0.00,WeatherCatV1.20B785,2013-08-10 10:40:00,
2013-08-10 06:41:00,50.5,48.5,30.05,WSW,248,0.0,0.0,93,0.00,,,0.00,WeatherCatV1.20B785,2013-08-10 10:41:00,
2013-08-10 06:45:00,50.7,48.8,30.05,WSW,248,0.0,0.0,93,0.00,,,0.00,WeatherCatV1.20B785,2013-08-10 10:45:00,
2013-08-10 06:46:00,50.8,48.8,30.05,WSW,248,0.0,0.0,93,0.00,,,0.00,WeatherCatV1.20B785,2013-08-10 10:46:00,
2013-08-10 06:50:00,51.1,49.2,30.05,WSW,248,0.0,0.0,93,0.00,,,0.00,WeatherCatV1.20B785,2013-08-10 10:50:00,
2013-08-10 06:51:00,51.3,49.3,30.05,WSW,248,0.0,0.0,93,0.00,,,0.00,WeatherCatV1.20B785,2013-08-10 10:51:00,
2013-08-10 06:55:00,51.7,49.8,30.05,WSW,248,0.0,0.0,93,0.00,,,0.00,WeatherCatV1.20B785,2013-08-10 10:55:00,
2013-08-10 06:56:00,51.9,49.9,30.05,WSW,248,0.0,0.0,93,0.00,,,0.00,WeatherCatV1.20B785,2013-08-10 10:56:00,
2013-08-10 07:00:00,52.4,50.4,30.05,WSW,248,0.0,0.0,93,0.00,,,0.00,WeatherCatV1.20B785,2013-08-10 11:00:00,
2013-08-10 07:01:00,52.5,50.5,30.05,WSW,248,0.0,0.0,93,0.00,,,0.00,WeatherCatV1.20B785,2013-08-10 11:01:00,
2013-08-10 07:05:00,53.1,51.1,30.05,WSW,248,0.0,0.0,93,0.00,,,0.00,WeatherCatV1.20B785,2013-08-10 11:05:00,
2013-08-10 07:06:00,53.1,51.1,30.05,WSW,248,0.0,0.0,93,0.00,,,0.00,WeatherCatV1.20B785,2013-08-10 11:06:00,
2013-08-10 07:10:00,53.0,51.0,30.05,WSW,248,0.0,0.0,93,0.00,,,0.00,WeatherCatV1.20B785,2013-08-10 11:10:00,
2013-08-10 07:11:00,53.0,51.0,30.05,WSW,248,0.0,0.0,93,0.00,,,0.00,WeatherCatV1.20B785,2013-08-10 11:11:00,
2013-08-10 07:15:00,52.6,50.6,30.05,WSW,248,0.0,0.0,93,0.00,,,0.00,WeatherCatV1.20B785,2013-08-10 11:15:00,
2013-08-10 07:16:00,52.6,50.6,30.05,WSW,248,0.0,0.0,93,0.00,,,0.00,WeatherCatV1.20B785,2013-08-10 11:16:00,
2013-08-10 07:20:00,52.6,50.6,30.05,WSW,248,0.0,0.0,93,0.00,,,0.00,WeatherCatV1.20B785,2013-08-10 11:20:00,
2013-08-10 07:21:00,52.6,50.6,30.05,WSW,248,0.0,0.0,93,0.00,,,0.00,WeatherCatV1.20B785,2013-08-10 11:21:00,
2013-08-10 07:25:00,52.7,50.7,30.05,WSW,248,0.0,0.0,93,0.00,,,0.00,WeatherCatV1.20B785,2013-08-10 11:25:00,
2013-08-10 07:26:00,52.7,50.7,30.05,WSW,248,0.0,0.0,93,0.00,,,0.00,WeatherCatV1.20B785,2013-08-10 11:26:00,
2013-08-10 07:30:00,53.3,51.3,30.05,WSW,248,0.0,0.0,93,0.00,,,0.00,WeatherCatV1.20B785,2013-08-10 11:30:00,
2013-08-10 07:31:00,53.5,51.5,30.05,WSW,249,0.0,0.0,93,0.00,,,0.00,WeatherCatV1.20B785,2013-08-10 11:31:00,
2013-08-10 07:35:00,54.8,52.8,30.06,WSW,249,0.0,0.0,93,0.00,,,0.00,WeatherCatV1.20B785,2013-08-10 11:35:00,
2013-08-10 07:36:00,54.8,52.8,30.06,WSW,249,0.0,0.0,93,0.00,,,0.00,WeatherCatV1.20B785,2013-08-10 11:36:00,
2013-08-10 07:40:00,54.9,52.9,30.06,WSW,249,0.0,0.0,93,0.00,,,0.00,WeatherCatV1.20B785,2013-08-10 11:40:00,
2013-08-10 07:41:00,54.9,52.9,30.06,WSW,249,0.0,0.0,93,0.00,,,0.00,WeatherCatV1.20B785,2013-08-10 11:41:00,
2013-08-10 07:45:00,56.0,54.0,30.06,WSW,249,0.0,0.0,93,0.00,,,0.00,WeatherCatV1.20B785,2013-08-10 11:45:00,
2013-08-10 07:46:00,56.1,54.1,30.06,WSW,249,0.0,0.0,93,0.00,,,0.00,WeatherCatV1.20B785,2013-08-10 11:46:00,
2013-08-10 07:50:00,56.3,54.3,30.06,WSW,249,0.0,0.0,93,0.00,,,0.00,WeatherCatV1.20B785,2013-08-10 11:50:00,
2013-08-10 07:51:00,56.3,54.3,30.06,WSW,249,0.0,0.0,93,0.00,,,0.00,WeatherCatV1.20B785,2013-08-10 11:51:00,
2013-08-10 07:55:00,56.7,54.7,30.06,WSW,249,0.0,0.0,93,0.00,,,0.00,WeatherCatV1.20B785,2013-08-10 11:55:00,
2013-08-10 07:56:00,56.9,54.9,30.06,WSW,249,0.0,0.0,93,0.00,,,0.00,WeatherCatV1.20B785,2013-08-10 11:56:00,
2013-08-10 08:00:00,56.9,54.9,30.06,WSW,249,0.0,0.0,93,0.00,,,0.00,WeatherCatV1.20B785,2013-08-10 12:00:00,
2013-08-10 08:01:00,57.1,55.1,30.06,WSW,249,0.0,0.0,93,0.00,,,0.00,WeatherCatV1.20B785,2013-08-10 12:01:00,
2013-08-10 08:05:00,57.7,55.7,30.06,WSW,249,0.0,0.0,93,0.00,,,0.00,WeatherCatV1.20B785,2013-08-10 12:05:00,
2013-08-10 08:06:00,57.8,55.8,30.06,WSW,249,0.0,0.0,93,0.00,,,0.00,WeatherCatV1.20B785,2013-08-10 12:06:00,
2013-08-10 08:10:00,58.0,56.0,30.06,WSW,249,0.0,0.0,93,0.00,,,0.00,WeatherCatV1.20B785,2013-08-10 12:10:00,
2013-08-10 08:11:00,58.1,55.8,30.06,WSW,249,0.0,0.0,92,0.00,,,0.00,WeatherCatV1.20B785,2013-08-10 12:11:00,
2013-08-10 08:15:00,58.6,56.3,30.06,WSW,249,0.0,0.0,92,0.00,,,0.00,WeatherCatV1.20B785,2013-08-10 12:15:00,
2013-08-10 08:16:00,59.0,56.7,30.06,WSW,249,0.0,0.0,92,0.00,,,0.00,WeatherCatV1.20B785,2013-08-10 12:16:00,
2013-08-10 08:20:00,59.7,57.7,30.06,WSW,249,0.0,0.0,93,0.00,,,0.00,WeatherCatV1.20B785,2013-08-10 12:20:00,
2013-08-10 08:21:00,59.6,57.3,30.07,West,260,0.0,1.0,92,0.00,,,0.00,WeatherCatV1.20B785,2013-08-10 12:21:00,
2013-08-10 08:25:00,60.3,58.0,30.06,WSW,257,0.0,0.0,92,0.00,,,0.00,WeatherCatV1.20B785,2013-08-10 12:25:00,
2013-08-10 08:26:00,60.7,58.4,30.06,West,264,0.0,0.0,92,0.00,,,0.00,WeatherCatV1.20B785,2013-08-10 12:26:00,
2013-08-10 08:30:00,61.3,59.0,30.06,West,262,0.0,0.0,92,0.00,,,0.00,WeatherCatV1.20B785,2013-08-10 12:30:00,
2013-08-10 08:31:00,61.6,59.2,30.06,West,264,0.0,0.0,92,0.00,,,0.00,WeatherCatV1.20B785,2013-08-10 12:31:00,
2013-08-10 08:35:00,62.1,59.4,30.06,West,264,0.0,0.0,91,0.00,,,0.00,WeatherCatV1.20B785,2013-08-10 12:35:00,
2013-08-10 08:36:00,62.3,59.6,30.06,West,264,0.0,0.0,91,0.00,,,0.00,WeatherCatV1.20B785,2013-08-10 12:36:00,
2013-08-10 08:40:00,62.9,60.2,30.07,West,264,0.0,0.0,91,0.00,,,0.00,WeatherCatV1.20B785,2013-08-10 12:40:00,
2013-08-10 08:41:00,63.1,60.4,30.07,West,264,0.0,0.0,91,0.00,,,0.00,WeatherCatV1.20B785,2013-08-10 12:41:00,
2013-08-10 08:45:00,63.2,60.2,30.07,West,264,0.0,0.0,90,0.00,,,0.00,WeatherCatV1.20B785,2013-08-10 12:45:00,
2013-08-10 08:46:00,63.2,59.9,30.07,West,265,0.0,0.0,89,0.00,,,0.00,WeatherCatV1.20B785,2013-08-10 12:46:00,
2013-08-10 08:50:00,63.5,60.2,30.07,West,264,0.0,0.0,89,0.00,,,0.00,WeatherCatV1.20B785,2013-08-10 12:50:00,
2013-08-10 08:51:00,63.5,60.2,30.07,West,264,0.0,0.0,89,0.00,,,0.00,WeatherCatV1.20B785,2013-08-10 12:51:00,
2013-08-10 08:55:00,63.5,60.2,30.07,West,264,0.0,0.0,89,0.00,,,0.00,WeatherCatV1.20B785,2013-08-10 12:55:00,
2013-08-10 08:56:00,63.5,60.2,30.07,West,264,0.0,0.0,89,0.00,,,0.00,WeatherCatV1.20B785,2013-08-10 12:56:00,
2013-08-10 09:00:00,63.8,60.5,30.07,West,264,0.0,0.0,89,0.00,,,0.00,WeatherCatV1.20B785,2013-08-10 13:00:00,
2013-08-10 09:01:00,63.8,60.2,30.07,West,264,0.0,0.0,88,0.00,,,0.00,WeatherCatV1.20B785,2013-08-10 13:01:00,
2013-08-10 09:05:00,63.8,60.2,30.07,West,264,0.0,0.0,88,0.00,,,0.00,WeatherCatV1.20B785,2013-08-10 13:05:00,
2013-08-10 09:06:00,63.8,60.2,30.07,West,264,0.0,0.0,88,0.00,,,0.00,WeatherCatV1.20B785,2013-08-10 13:06:00,
2013-08-10 09:10:00,64.1,60.5,30.07,West,264,0.0,0.0,88,0.00,,,0.00,WeatherCatV1.20B785,2013-08-10 13:10:00,
2013-08-10 09:11:00,64.2,60.6,30.07,West,264,0.0,0.0,88,0.00,,,0.00,WeatherCatV1.20B785,2013-08-10 13:11:00,
2013-08-10 09:15:00,65.2,61.2,30.08,West,264,0.0,0.0,87,0.00,,,0.00,WeatherCatV1.20B785,2013-08-10 13:15:00,
2013-08-10 09:16:00,65.3,61.3,30.08,West,265,0.0,0.0,87,0.00,,,0.00,WeatherCatV1.20B785,2013-08-10 13:16:00,
2013-08-10 09:20:00,66.1,60.8,30.07,SW,228,0.0,1.0,83,0.00,,,0.00,WeatherCatV1.20B785,2013-08-10 13:20:00,
2013-08-10 09:21:00,66.0,60.7,30.07,SE,132,0.0,1.0,83,0.00,,,0.00,WeatherCatV1.20B785,2013-08-10 13:21:00,
2013-08-10 09:25:00,66.2,61.2,30.08,SSE,167,0.0,0.0,84,0.00,,,0.00,WeatherCatV1.20B785,2013-08-10 13:25:00,
2013-08-10 09:26:00,66.2,61.5,30.08,ESE,112,1.0,1.0,85,0.00,,,0.00,WeatherCatV1.20B785,2013-08-10 13:26:00,
2013-08-10 09:30:00,66.3,61.3,30.07,SE,130,0.0,0.0,84,0.00,,,0.00,WeatherCatV1.20B785,2013-08-10 13:30:00,
2013-08-10 09:31:00,66.6,61.3,30.07,ENE,61,0.0,1.0,83,0.00,,,0.00,WeatherCatV1.20B785,2013-08-10 13:31:00,
2013-08-10 09:35:00,66.6,60.6,30.08,NE,51,0.0,1.0,81,0.00,,,0.00,WeatherCatV1.20B785,2013-08-10 13:35:00,
2013-08-10 09:36:00,66.6,61.3,30.07,NNW,332,0.0,0.0,83,0.00,,,0.00,WeatherCatV1.20B785,2013-08-10 13:36:00,
2013-08-10 09:40:00,66.9,61.6,30.08,NNE,15,0.0,1.0,83,0.00,,,0.00,WeatherCatV1.20B785,2013-08-10 13:40:00,
2013-08-10 09:41:00,66.9,60.9,30.08,NNW,335,0.0,2.0,81,0.00,,,0.00,WeatherCatV1.20B785,2013-08-10 13:41:00,
2013-08-10 09:45:00,67.1,61.8,30.08,NNE,19,0.0,1.0,83,0.00,,,0.00,WeatherCatV1.20B785,2013-08-10 13:45:00,
2013-08-10 09:46:00,67.3,61.6,30.08,East,90,0.0,2.0,82,0.00,,,0.00,WeatherCatV1.20B785,2013-08-10 13:46:00,
2013-08-10 09:50:00,67.7,61.7,30.08,NE,45,1.0,2.0,81,0.00,,,0.00,WeatherCatV1.20B785,2013-08-10 13:50:00,
2013-08-10 09:51:00,67.7,61.3,30.08,NE,40,0.0,2.0,80,0.00,,,0.00,WeatherCatV1.20B785,2013-08-10 13:51:00,
2013-08-10 09:55:00,67.7,60.9,30.08,ENE,62,1.0,3.0,79,0.00,,,0.00,WeatherCatV1.20B785,2013-08-10 13:55:00,
2013-08-10 09:56:00,67.7,60.6,30.08,ENE,77,4.0,4.0,78,0.00,,,0.00,WeatherCatV1.20B785,2013-08-10 13:56:00,
2013-08-10 10:00:00,67.7,60.9,30.08,ENE,75,2.0,2.0,79,0.00,,,0.00,WeatherCatV1.20B785,2013-08-10 14:00:00,
2013-08-10 10:01:00,67.9,62.2,30.08,ESE,103,2.0,2.0,82,0.00,,,0.00,WeatherCatV1.20B785,2013-08-10 14:01:00,
2013-08-10 10:05:00,68.1,61.7,30.08,ENE,75,2.0,2.0,80,0.00,,,0.00,WeatherCatV1.20B785,2013-08-10 14:05:00,
2013-08-10 10:06:00,68.0,60.9,30.08,NE,51,0.0,2.0,78,0.00,,,0.00,WeatherCatV1.20B785,2013-08-10 14:06:00,
2013-08-10 10:10:00,68.2,61.8,30.08,ENE,57,1.0,0.0,80,0.00,,,0.00,WeatherCatV1.20B785,2013-08-10 14:10:00,
2013-08-10 10:11:00,68.5,62.1,30.08,NE,51,0.0,1.0,80,0.00,,,0.00,WeatherCatV1.20B785,2013-08-10 14:11:00,
2013-08-10 10:15:00,69.0,62.2,30.08,ENE,77,0.0,1.0,79,0.00,,,0.00,WeatherCatV1.20B785,2013-08-10 14:15:00,
2013-08-10 10:16:00,69.0,62.2,30.08,East,82,2.0,2.0,79,0.00,,,0.00,WeatherCatV1.20B785,2013-08-10 14:16:00,
2013-08-10 10:20:00,69.0,61.8,30.08,East,83,1.0,1.0,78,0.00,,,0.00,WeatherCatV1.20B785,2013-08-10 14:20:00,
2013-08-10 10:21:00,69.0,61.8,30.08,ESE,113,0.0,1.0,78,0.00,,,0.00,WeatherCatV1.20B785,2013-08-10 14:21:00,
2013-08-10 10:25:00,69.5,61.2,30.08,NNE,18,1.0,2.0,75,0.00,,,0.00,WeatherCatV1.20B785,2013-08-10 14:25:00,
2013-08-10 10:26:00,69.4,61.1,30.08,West,267,1.0,2.0,75,0.00,,,0.00,WeatherCatV1.20B785,2013-08-10 14:26:00,
2013-08-10 10:30:00,69.7,61.8,30.08,WSW,249,1.0,1.0,76,0.00,,,0.00,WeatherCatV1.20B785,2013-08-10 14:30:00,
2013-08-10 10:31:00,69.8,61.9,30.08,SE,127,0.0,1.0,76,0.00,,,0.00,WeatherCatV1.20B785,2013-08-10 14:31:00,
2013-08-10 10:35:00,70.3,62.0,30.08,NNW,345,1.0,2.0,75,0.00,,,0.00,WeatherCatV1.20B785,2013-08-10 14:35:00,
2013-08-10 10:36:00,70.3,62.0,30.08,NE,55,3.0,4.0,75,0.00,,,0.00,WeatherCatV1.20B785,2013-08-10 14:36:00,
2013-08-10 10:40:00,70.3,61.6,30.08,North,354,2.0,2.0,74,0.00,,,0.00,WeatherCatV1.20B785,2013-08-10 14:40:00,
2013-08-10 10:41:00,70.3,61.6,30.08,NW,307,5.0,5.0,74,0.00,,,0.00,WeatherCatV1.20B785,2013-08-10 14:41:00,
2013-08-10 10:45:00,70.2,61.9,30.08,NNW,343,1.0,0.0,75,0.00,,,0.00,WeatherCatV1.20B785,2013-08-10 14:45:00,
2013-08-10 10:47:00,70.3,61.6,30.08,NW,305,0.0,1.0,74,0.00,,,0.00,WeatherCatV1.20B785,2013-08-10 14:47:00,
2013-08-10 10:50:00,70.4,62.1,30.08,NW,316,1.0,1.0,75,0.00,,,0.00,WeatherCatV1.20B785,2013-08-10 14:50:00,
2013-08-10 10:51:00,70.4,62.1,30.08,NNW,340,1.0,1.0,75,0.00,,,0.00,WeatherCatV1.20B785,2013-08-10 14:51:00,
2013-08-10 10:55:00,70.5,63.3,30.08,NW,324,1.0,3.0,78,0.00,,,0.00,WeatherCatV1.20B785,2013-08-10 14:55:00,
2013-08-10 10:56:00,70.5,63.3,30.08,NNE,22,1.0,3.0,78,0.00,,,0.00,WeatherCatV1.20B785,2013-08-10 14:56:00,
2013-08-10 11:00:00,70.9,62.2,30.08,NW,320,1.0,2.0,74,0.00,,,0.00,WeatherCatV1.20B785,2013-08-10 15:00:00,
2013-08-10 11:01:00,71.0,62.3,30.08,NNE,12,0.0,2.0,74,0.00,,,0.00,WeatherCatV1.20B785,2013-08-10 15:01:00,
2013-08-10 11:05:00,70.7,61.2,30.08,NNW,348,2.0,4.0,72,0.00,,,0.00,WeatherCatV1.20B785,2013-08-10 15:05:00,
2013-08-10 11:06:00,70.7,60.8,30.08,WNW,297,1.0,4.0,71,0.00,,,0.00,WeatherCatV1.20B785,2013-08-10 15:06:00,
2013-08-10 11:10:00,70.8,60.9,30.08,North,354,2.0,2.0,71,0.00,,,0.00,WeatherCatV1.20B785,2013-08-10 15:10:00,
2013-08-10 11:11:00,70.8,60.1,30.08,NW,309,4.0,5.0,69,0.00,,,0.00,WeatherCatV1.20B785,2013-08-10 15:11:00,
2013-08-10 11:15:00,71.2,59.7,30.08,NNW,344,2.0,2.0,67,0.00,,,0.00,WeatherCatV1.20B785,2013-08-10 15:15:00,
2013-08-10 11:16:00,71.3,60.2,30.08,North,8,2.0,4.0,68,0.00,,,0.00,WeatherCatV1.20B785,2013-08-10 15:16:00,
2013-08-10 11:20:00,71.2,61.7,30.08,North,9,1.0,3.0,72,0.00,,,0.00,WeatherCatV1.20B785,2013-08-10 15:20:00,
2013-08-10 11:22:00,71.2,60.1,30.08,NW,323,1.0,5.0,68,0.00,,,0.00,WeatherCatV1.20B785,2013-08-10 15:22:00,
2013-08-10 11:25:00,71.4,60.7,30.08,North,351,2.0,7.0,69,0.00,,,0.00,WeatherCatV1.20B785,2013-08-10 15:25:00,
2013-08-10 11:27:00,71.5,60.8,30.08,NW,323,2.0,7.0,69,0.00,,,0.00,WeatherCatV1.20B785,2013-08-10 15:27:00,
2013-08-10 11:30:00,71.6,60.0,30.08,North,358,2.0,4.0,67,0.00,,,0.00,WeatherCatV1.20B785,2013-08-10 15:30:00,
2013-08-10 11:32:00,71.7,60.6,30.08,West,278,0.0,3.0,68,0.00,,,0.00,WeatherCatV1.20B785,2013-08-10 15:32:00,
2013-08-10 11:35:00,71.9,59.9,30.08,North,349,2.0,2.0,66,0.00,,,0.00,WeatherCatV1.20B785,2013-08-10 15:35:00,
2013-08-10 11:37:00,72.0,60.8,30.08,NNE,15,3.0,6.0,68,0.00,,,0.00,WeatherCatV1.20B785,2013-08-10 15:37:00,
2013-08-10 11:40:00,72.1,59.7,30.08,NNE,20,2.0,3.0,65,0.00,,,0.00,WeatherCatV1.20B785,2013-08-10 15:40:00,
2013-08-10 11:42:00,72.2,60.6,30.08,NE,44,1.0,3.0,67,0.00,,,0.00,WeatherCatV1.20B785,2013-08-10 15:42:00,
2013-08-10 11:45:00,72.4,60.4,30.08,North,4,2.0,5.0,66,0.00,,,0.00,WeatherCatV1.20B785,2013-08-10 15:45:00,
2013-08-10 11:47:00,72.6,62.2,30.08,NNW,348,3.0,4.0,70,0.00,,,0.00,WeatherCatV1.20B785,2013-08-10 15:47:00,
2013-08-10 11:50:00,72.6,60.6,30.08,North,8,2.0,5.0,66,0.00,,,0.00,WeatherCatV1.20B785,2013-08-10 15:50:00,
2013-08-10 11:52:00,72.6,59.7,30.08,North,5,2.0,3.0,64,0.00,,,0.00,WeatherCatV1.20B785,2013-08-10 15:52:00,
2013-08-10 11:55:00,72.6,60.6,30.08,NNE,27,2.0,2.0,66,0.00,,,0.00,WeatherCatV1.20B785,2013-08-10 15:55:00,
2013-08-10 11:57:00,72.7,61.9,30.08,East,98,0.0,1.0,69,0.00,,,0.00,WeatherCatV1.20B785,2013-08-10 15:57:00,
2013-08-10 12:00:00,73.0,60.1,30.08,NNE,33,1.0,2.0,64,0.00,,,0.00,WeatherCatV1.20B785,2013-08-10 16:00:00,
2013-08-10 12:02:00,73.1,60.2,30.08,North,356,0.0,2.0,64,0.00,,,0.00,WeatherCatV1.20B785,2013-08-10 16:02:00,
2013-08-10 12:05:00,73.1,60.2,30.08,NNE,21,1.0,5.0,64,0.00,,,0.00,WeatherCatV1.20B785,2013-08-10 16:05:00,
2013-08-10 12:07:00,73.1,60.6,30.08,NW,307,1.0,5.0,65,0.00,,,0.00,WeatherCatV1.20B785,2013-08-10 16:07:00,
2013-08-10 12:08:00,73.1,61.0,30.08,WNW,293,2.0,5.0,66,0.00,,,0.00,WeatherCatV1.20B785,2013-08-10 16:08:00,
2013-08-10 12:10:00,73.3,59.5,30.08,North,349,2.0,4.0,62,0.00,,,0.00,WeatherCatV1.20B785,2013-08-10 16:10:00,
2013-08-10 12:13:00,73.4,60.0,30.08,NNW,347,1.0,7.0,63,0.00,,,0.00,WeatherCatV1.20B785,2013-08-10 16:13:00,
2013-08-10 12:15:00,73.6,59.8,30.08,North,11,2.0,4.0,62,0.00,,,0.00,WeatherCatV1.20B785,2013-08-10 16:15:00,
2013-08-10 12:18:00,73.6,58.8,30.08,NW,318,3.0,6.0,60,0.00,,,0.00,WeatherCatV1.20B785,2013-08-10 16:18:00,
2013-08-10 12:20:00,73.5,59.7,30.08,NNW,336,2.0,3.0,62,0.00,,,0.00,WeatherCatV1.20B785,2013-08-10 16:20:00,
2013-08-10 12:23:00,73.5,58.8,30.08,West,263,2.0,2.0,60,0.00,,,0.00,WeatherCatV1.20B785,2013-08-10 16:23:00,
2013-08-10 12:25:00,73.4,58.7,30.08,NW,309,2.0,6.0,60,0.00,,,0.00,WeatherCatV1.20B785,2013-08-10 16:25:00,
2013-08-10 12:28:00,73.3,58.1,30.08,NW,311,3.0,4.0,59,0.00,,,0.00,WeatherCatV1.20B785,2013-08-10 16:28:00,
2013-08-10 12:30:00,73.2,58.0,30.08,NW,306,2.0,6.0,59,0.00,,,0.00,WeatherCatV1.20B785,2013-08-10 16:30:00,
2013-08-10 12:33:00,73.1,57.4,30.08,NNW,332,8.0,8.0,58,0.00,,,0.00,WeatherCatV1.20B785,2013-08-10 16:33:00,
2013-08-10 12:35:00,72.9,57.2,30.08,NW,319,3.0,6.0,58,0.00,,,0.00,WeatherCatV1.20B785,2013-08-10 16:35:00,
2013-08-10 12:38:00,72.9,57.7,30.08,NW,304,3.0,4.0,59,0.00,,,0.00,WeatherCatV1.20B785,2013-08-10 16:38:00,
2013-08-10 12:40:00,73.2,57.5,30.08,NW,319,3.0,3.0,58,0.00,,,0.00,WeatherCatV1.20B785,2013-08-10 16:40:00,
2013-08-10 12:43:00,73.3,58.6,30.08,WSW,256,1.0,3.0,60,0.00,,,0.00,WeatherCatV1.20B785,2013-08-10 16:43:00,
2013-08-10 12:45:00,73.9,59.1,30.09,NW,306,1.0,2.0,60,0.00,,,0.00,WeatherCatV1.20B785,2013-08-10 16:45:00,
2013-08-10 12:48:00,74.1,59.3,30.09,NNW,341,1.0,2.0,60,0.00,,,0.00,WeatherCatV1.20B785,2013-08-10 16:48:00,
2013-08-10 12:50:00,74.4,58.2,30.09,NW,312,1.0,5.0,57,0.00,,,0.00,WeatherCatV1.20B785,2013-08-10 16:50:00,
2013-08-10 12:53:00,74.3,57.1,30.09,WSW,240,2.0,2.0,55,0.00,,,0.00,WeatherCatV1.20B785,2013-08-10 16:53:00,
2013-08-10 12:55:00,74.5,58.7,30.08,NW,314,1.0,2.0,58,0.00,,,0.00,WeatherCatV1.20B785,2013-08-10 16:55:00,
2013-08-10 12:58:00,74.8,59.5,30.08,NNW,344,2.0,2.0,59,0.00,,,0.00,WeatherCatV1.20B785,2013-08-10 16:58:00,
2013-08-10 13:00:00,74.7,59.4,30.08,NW,322,1.0,3.0,59,0.00,,,0.00,WeatherCatV1.20B785,2013-08-10 17:00:00,
2013-08-10 13:03:00,74.3,57.1,30.08,East,92,4.0,6.0,55,0.00,,,0.00,WeatherCatV1.20B785,2013-08-10 17:03:00,
2013-08-10 13:05:00,74.2,59.4,30.09,NNW,339,2.0,2.0,60,0.00,,,0.00,WeatherCatV1.20B785,2013-08-10 17:05:00,
2013-08-10 13:08:00,74.3,57.6,30.08,North,355,2.0,4.0,56,0.00,,,0.00,WeatherCatV1.20B785,2013-08-10 17:08:00,
2013-08-10 13:10:00,74.5,56.8,30.08,NNW,331,2.0,5.0,54,0.00,,,0.00,WeatherCatV1.20B785,2013-08-10 17:10:00,
2013-08-10 13:13:00,74.7,57.9,30.08,North,1,3.0,7.0,56,0.00,,,0.00,WeatherCatV1.20B785,2013-08-10 17:13:00,
2013-08-10 13:15:00,74.7,57.4,30.08,NW,326,2.0,7.0,55,0.00,,,0.00,WeatherCatV1.20B785,2013-08-10 17:15:00,
2013-08-10 13:18:00,74.4,56.1,30.09,NNW,327,2.0,5.0,53,0.00,,,0.00,WeatherCatV1.20B785,2013-08-10 17:18:00,
2013-08-10 13:20:00,74.3,57.6,30.09,NNW,329,3.0,3.0,56,0.00,,,0.00,WeatherCatV1.20B785,2013-08-10 17:20:00,
2013-08-10 13:23:00,74.5,57.8,30.09,NNE,33,1.0,2.0,56,0.00,,,0.00,WeatherCatV1.20B785,2013-08-10 17:23:00,
2013-08-10 13:25:00,74.8,56.5,30.09,WNW,303,2.0,4.0,53,0.00,,,0.00,WeatherCatV1.20B785,2013-08-10 17:25:00,
2013-08-10 13:28:00,75.0,57.7,30.09,NW,321,1.0,5.0,55,0.00,,,0.00,WeatherCatV1.20B785,2013-08-10 17:28:00,
2013-08-10 13:30:00,75.1,57.8,30.09,NW,325,1.0,5.0,55,0.00,,,0.00,WeatherCatV1.20B785,2013-08-10 17:30:00,
2013-08-10 13:33:00,74.9,58.1,30.08,NW,321,2.0,5.0,56,0.00,,,0.00,WeatherCatV1.20B785,2013-08-10 17:33:00,
2013-08-10 13:35:00,74.8,57.0,30.08,NNW,329,2.0,2.0,54,0.00,,,0.00,WeatherCatV1.20B785,2013-08-10 17:35:00,
2013-08-10 13:38:00,74.8,56.0,30.09,NNW,335,3.0,4.0,52,0.00,,,0.00,WeatherCatV1.20B785,2013-08-10 17:38:00,
2013-08-10 13:40:00,74.7,57.4,30.09,NNW,339,2.0,2.0,55,0.00,,,0.00,WeatherCatV1.20B785,2013-08-10 17:40:00,
2013-08-10 13:43:00,74.7,56.4,30.09,North,11,1.0,6.0,53,0.00,,,0.00,WeatherCatV1.20B785,2013-08-10 17:43:00,
2013-08-10 13:45:00,74.6,55.8,30.09,NNW,344,3.0,7.0,52,0.00,,,0.00,WeatherCatV1.20B785,2013-08-10 17:45:00,
2013-08-10 13:48:00,74.7,57.4,30.09,NNE,12,5.0,5.0,55,0.00,,,0.00,WeatherCatV1.20B785,2013-08-10 17:48:00,
2013-08-10 13:50:00,74.8,56.5,30.08,NW,318,2.0,3.0,53,0.00,,,0.00,WeatherCatV1.20B785,2013-08-10 17:50:00,
2013-08-10 13:53:00,74.9,55.0,30.08,WNW,284,1.0,3.0,50,0.00,,,0.00,WeatherCatV1.20B785,2013-08-10 17:53:00,
2013-08-10 13:55:00,75.1,58.3,30.09,NW,309,2.0,3.0,56,0.00,,,0.00,WeatherCatV1.20B785,2013-08-10 17:55:00,
2013-08-10 13:58:00,75.1,56.8,30.09,NNE,27,1.0,7.0,53,0.00,,,0.00,WeatherCatV1.20B785,2013-08-10 17:58:00,
2013-08-10 14:00:00,75.1,55.2,30.08,NNW,336,2.0,7.0,50,0.00,,,0.00,WeatherCatV1.20B785,2013-08-10 18:00:00,
2013-08-10 14:03:00,74.9,55.5,30.08,North,0,3.0,8.0,51,0.00,,,0.00,WeatherCatV1.20B785,2013-08-10 18:03:00,
2013-08-10 14:05:00,74.8,54.9,30.08,NNW,341,3.0,5.0,50,0.00,,,0.00,WeatherCatV1.20B785,2013-08-10 18:05:00,
2013-08-10 14:08:00,74.8,56.0,30.08,NW,309,2.0,5.0,52,0.00,,,0.00,WeatherCatV1.20B785,2013-08-10 18:08:00,
2013-08-10 14:10:00,74.8,58.0,30.08,NNW,332,3.0,3.0,56,0.00,,,0.00,WeatherCatV1.20B785,2013-08-10 18:10:00,
2013-08-10 14:13:00,74.8,55.4,30.08,NNW,337,1.0,4.0,51,0.00,,,0.00,WeatherCatV1.20B785,2013-08-10 18:13:00,
2013-08-10 14:15:00,74.6,57.3,30.08,NNW,343,2.0,2.0,55,0.00,,,0.00,WeatherCatV1.20B785,2013-08-10 18:15:00,
2013-08-10 14:18:00,74.5,55.7,30.08,NNW,340,1.0,3.0,52,0.00,,,0.00,WeatherCatV1.20B785,2013-08-10 18:18:00,
2013-08-10 14:20:00,74.3,56.0,30.08,North,350,1.0,1.0,53,0.00,,,0.00,WeatherCatV1.20B785,2013-08-10 18:20:00,
2013-08-10 14:23:00,74.3,57.1,30.08,NW,321,0.0,3.0,55,0.00,,,0.00,WeatherCatV1.20B785,2013-08-10 18:23:00,
2013-08-10 14:25:00,74.0,56.3,30.08,NNW,347,1.0,3.0,54,0.00,,,0.00,WeatherCatV1.20B785,2013-08-10 18:25:00,
2013-08-10 14:28:00,73.8,56.6,30.08,ENE,78,5.0,5.0,55,0.00,,,0.00,WeatherCatV1.20B785,2013-08-10 18:28:00,
2013-08-10 14:30:00,73.4,54.7,30.08,NNW,346,2.0,3.0,52,0.00,,,0.00,WeatherCatV1.20B785,2013-08-10 18:30:00,
2013-08-10 14:33:00,73.1,54.4,30.07,NNE,27,3.0,4.0,52,0.00,,,0.00,WeatherCatV1.20B785,2013-08-10 18:33:00,
2013-08-10 14:35:00,72.9,54.8,30.08,NNW,347,2.0,5.0,53,0.00,,,0.00,WeatherCatV1.20B785,2013-08-10 18:35:00,
2013-08-10 14:38:00,73.0,55.9,30.07,WNW,297,2.0,3.0,55,0.00,,,0.00,WeatherCatV1.20B785,2013-08-10 18:38:00,
2013-08-10 14:40:00,73.2,56.5,30.07,North,350,2.0,2.0,56,0.00,,,0.00,WeatherCatV1.20B785,2013-08-10 18:40:00,
2013-08-10 14:43:00,73.4,55.7,30.07,NW,315,3.0,7.0,54,0.00,,,0.00,WeatherCatV1.20B785,2013-08-10 18:43:00,
2013-08-10 14:45:00,73.5,54.8,30.07,NNW,344,3.0,6.0,52,0.00,,,0.00,WeatherCatV1.20B785,2013-08-10 18:45:00,
2013-08-10 14:48:00,73.7,55.5,30.07,WSW,256,0.0,2.0,53,0.00,,,0.00,WeatherCatV1.20B785,2013-08-10 18:48:00,
2013-08-10 14:50:00,73.9,55.2,30.07,NNW,331,3.0,4.0,52,0.00,,,0.00,WeatherCatV1.20B785,2013-08-10 18:50:00,
2013-08-10 14:53:00,74.1,57.4,30.07,NNW,341,3.0,3.0,56,0.00,,,0.00,WeatherCatV1.20B785,2013-08-10 18:53:00,
2013-08-10 14:55:00,74.4,57.2,30.07,NNW,333,2.0,2.0,55,0.00,,,0.00,WeatherCatV1.20B785,2013-08-10 18:55:00,
2013-08-10 14:58:00,74.6,57.3,30.07,West,270,0.0,4.0,55,0.00,,,0.00,WeatherCatV1.20B785,2013-08-10 18:58:00,
2013-08-10 15:00:00,74.7,55.9,30.07,NW,315,1.0,2.0,52,0.00,,,0.00,WeatherCatV1.20B785,2013-08-10 19:00:00,
2013-08-10 15:03:00,74.8,56.0,30.07,NW,321,2.0,5.0,52,0.00,,,0.00,WeatherCatV1.20B785,2013-08-10 19:03:00,
2013-08-10 15:05:00,74.9,56.1,30.07,NW,304,2.0,3.0,52,0.00,,,0.00,WeatherCatV1.20B785,2013-08-10 19:05:00,
2013-08-10 15:08:00,74.8,55.4,30.07,NW,311,1.0,4.0,51,0.00,,,0.00,WeatherCatV1.20B785,2013-08-10 19:08:00,
2013-08-10 15:10:00,74.8,56.0,30.08,NW,316,2.0,6.0,52,0.00,,,0.00,WeatherCatV1.20B785,2013-08-10 19:10:00,
2013-08-10 15:13:00,74.8,56.0,30.07,NNE,15,3.0,3.0,52,0.00,,,0.00,WeatherCatV1.20B785,2013-08-10 19:13:00,
2013-08-10 15:15:00,74.9,57.6,30.08,NW,323,2.0,3.0,55,0.00,,,0.00,WeatherCatV1.20B785,2013-08-10 19:15:00,
2013-08-10 15:18:00,75.0,54.5,30.07,NNW,343,2.0,3.0,49,0.00,,,0.00,WeatherCatV1.20B785,2013-08-10 19:18:00,
2013-08-10 15:20:00,74.9,54.4,30.07,NW,318,2.0,4.0,49,0.00,,,0.00,WeatherCatV1.20B785,2013-08-10 19:20:00,
2013-08-10 15:23:00,74.9,55.5,30.08,NNE,13,0.0,7.0,51,0.00,,,0.00,WeatherCatV1.20B785,2013-08-10 19:23:00,
2013-08-10 15:25:00,74.7,55.3,30.08,NNW,334,3.0,6.0,51,0.00,,,0.00,WeatherCatV1.20B785,2013-08-10 19:25:00,
2013-08-10 15:28:00,74.6,56.3,30.08,NNW,340,4.0,6.0,53,0.00,,,0.00,WeatherCatV1.20B785,2013-08-10 19:28:00,
2013-08-10 15:30:00,74.5,55.7,30.08,North,351,3.0,4.0,52,0.00,,,0.00,WeatherCatV1.20B785,2013-08-10 19:30:00,
2013-08-10 15:33:00,74.5,56.8,30.08,West,278,0.0,6.0,54,0.00,,,0.00,WeatherCatV1.20B785,2013-08-10 19:33:00,
2013-08-10 15:35:00,74.2,54.9,30.08,NNW,331,3.0,3.0,51,0.00,,,0.00,WeatherCatV1.20B785,2013-08-10 19:35:00,
2013-08-10 15:38:00,74.2,53.8,30.08,NW,311,0.0,4.0,49,0.00,,,0.00,WeatherCatV1.20B785,2013-08-10 19:38:00,
2013-08-10 15:40:00,74.3,55.5,30.08,NW,319,3.0,3.0,52,0.00,,,0.00,WeatherCatV1.20B785,2013-08-10 19:40:00,
2013-08-10 15:43:00,74.5,55.7,30.07,North,1,4.0,5.0,52,0.00,,,0.00,WeatherCatV1.20B785,2013-08-10 19:43:00,
2013-08-10 15:45:00,74.4,54.5,30.08,NNW,336,2.0,7.0,50,0.00,,,0.00,WeatherCatV1.20B785,2013-08-10 19:45:00,
2013-08-10 15:48:00,74.5,55.2,30.07,North,359,4.0,7.0,51,0.00,,,0.00,WeatherCatV1.20B785,2013-08-10 19:48:00,
2013-08-10 15:50:00,74.2,53.8,30.08,NNW,341,3.0,3.0,49,0.00,,,0.00,WeatherCatV1.20B785,2013-08-10 19:50:00,
2013-08-10 15:54:00,74.1,54.2,30.08,WSW,257,1.0,5.0,50,0.00,,,0.00,WeatherCatV1.20B785,2013-08-10 19:54:00,
2013-08-10 15:55:00,74.3,53.9,30.07,NW,306,2.0,8.0,49,0.00,,,0.00,WeatherCatV1.20B785,2013-08-10 19:55:00,
2013-08-10 15:59:00,74.4,56.1,30.07,ENE,76,0.0,4.0,53,0.00,,,0.00,WeatherCatV1.20B785,2013-08-10 19:59:00,
2013-08-10 16:00:00,74.6,53.6,30.08,NNW,343,1.0,6.0,48,0.00,,,0.00,WeatherCatV1.20B785,2013-08-10 20:00:00,
2013-08-10 16:04:00,74.5,54.6,30.08,West,280,2.0,6.0,50,0.00,,,0.00,WeatherCatV1.20B785,2013-08-10 20:04:00,
2013-08-10 16:05:00,74.4,52.8,30.08,NNW,329,2.0,5.0,47,0.00,,,0.00,WeatherCatV1.20B785,2013-08-10 20:05:00,
2013-08-10 16:09:00,74.3,55.0,30.08,NNW,338,1.0,5.0,51,0.00,,,0.00,WeatherCatV1.20B785,2013-08-10 20:09:00,
2013-08-10 16:10:00,74.2,53.8,30.08,NNW,329,3.0,8.0,49,0.00,,,0.00,WeatherCatV1.20B785,2013-08-10 20:10:00,
2013-08-10 16:14:00,74.1,54.8,30.08,NNW,346,1.0,6.0,51,0.00,,,0.00,WeatherCatV1.20B785,2013-08-10 20:14:00,
2013-08-10 16:15:00,74.0,53.6,30.08,NNW,329,3.0,3.0,49,0.00,,,0.00,WeatherCatV1.20B785,2013-08-10 20:15:00,
2013-08-10 16:19:00,73.8,54.0,30.07,North,4,4.0,4.0,50,0.00,,,0.00,WeatherCatV1.20B785,2013-08-10 20:19:00,
2013-08-10 16:20:00,73.8,54.5,30.07,NNW,333,2.0,7.0,51,0.00,,,0.00,WeatherCatV1.20B785,2013-08-10 20:20:00,
2013-08-10 16:24:00,73.9,53.5,30.08,NW,304,3.0,5.0,49,0.00,,,0.00,WeatherCatV1.20B785,2013-08-10 20:24:00,
2013-08-10 16:25:00,73.9,54.1,30.08,NW,312,3.0,5.0,50,0.00,,,0.00,WeatherCatV1.20B785,2013-08-10 20:25:00,
2013-08-10 16:29:00,73.7,53.3,30.08,NNW,345,1.0,4.0,49,0.00,,,0.00,WeatherCatV1.20B785,2013-08-10 20:29:00,
2013-08-10 16:30:00,73.5,54.8,30.08,NW,312,3.0,3.0,52,0.00,,,0.00,WeatherCatV1.20B785,2013-08-10 20:30:00,
2013-08-10 16:34:00,73.1,56.0,30.08,NW,314,1.0,2.0,55,0.00,,,0.00,WeatherCatV1.20B785,2013-08-10 20:34:00,
2013-08-10 16:35:00,73.0,54.8,30.08,NNW,327,2.0,4.0,53,0.00,,,0.00,WeatherCatV1.20B785,2013-08-10 20:35:00,
2013-08-10 16:39:00,72.8,55.2,30.08,NNW,330,2.0,4.0,54,0.00,,,0.00,WeatherCatV1.20B785,2013-08-10 20:39:00,
2013-08-10 16:40:00,72.9,55.3,30.08,NNW,335,2.0,6.0,54,0.00,,,0.00,WeatherCatV1.20B785,2013-08-10 20:40:00,
2013-08-10 16:44:00,73.0,53.8,30.07,NW,326,5.0,5.0,51,0.00,,,0.00,WeatherCatV1.20B785,2013-08-10 20:44:00,
2013-08-10 16:45:00,72.9,54.8,30.07,North,349,3.0,4.0,53,0.00,,,0.00,WeatherCatV1.20B785,2013-08-10 20:45:00,
2013-08-10 16:49:00,72.6,54.5,30.07,North,9,2.0,3.0,53,0.00,,,0.00,WeatherCatV1.20B785,2013-08-10 20:49:00,
2013-08-10 16:50:00,72.5,55.9,30.08,NNW,334,3.0,3.0,56,0.00,,,0.00,WeatherCatV1.20B785,2013-08-10 20:50:00,
2013-08-10 16:54:00,72.0,54.4,30.08,West,281,1.0,6.0,54,0.00,,,0.00,WeatherCatV1.20B785,2013-08-10 20:54:00,
2013-08-10 16:55:00,71.8,54.8,30.08,NW,322,2.0,2.0,55,0.00,,,0.00,WeatherCatV1.20B785,2013-08-10 20:55:00,
2013-08-10 16:59:00,71.6,54.6,30.08,NW,322,0.0,4.0,55,0.00,,,0.00,WeatherCatV1.20B785,2013-08-10 20:59:00,
2013-08-10 17:00:00,71.6,56.0,30.08,NNW,328,2.0,4.0,58,0.00,,,0.00,WeatherCatV1.20B785,2013-08-10 21:00:00,
2013-08-10 17:04:00,71.8,54.8,30.08,NW,304,4.0,9.0,55,0.00,,,0.00,WeatherCatV1.20B785,2013-08-10 21:04:00,
2013-08-10 17:05:00,71.8,54.2,30.08,NNW,332,3.0,3.0,54,0.00,,,0.00,WeatherCatV1.20B785,2013-08-10 21:05:00,
2013-08-10 17:09:00,72.0,54.4,30.08,NNW,343,2.0,5.0,54,0.00,,,0.00,WeatherCatV1.20B785,2013-08-10 21:09:00,
2013-08-10 17:10:00,72.0,54.4,30.08,NNW,338,3.0,4.0,54,0.00,,,0.00,WeatherCatV1.20B785,2013-08-10 21:10:00,
2013-08-10 17:14:00,72.1,55.0,30.08,NNW,330,5.0,7.0,55,0.00,,,0.00,WeatherCatV1.20B785,2013-08-10 21:14:00,
2013-08-10 17:15:00,72.0,54.4,30.08,NNW,344,3.0,6.0,54,0.00,,,0.00,WeatherCatV1.20B785,2013-08-10 21:15:00,
2013-08-10 17:19:00,72.2,56.1,30.08,NNE,26,4.0,4.0,57,0.00,,,0.00,WeatherCatV1.20B785,2013-08-10 21:19:00,
2013-08-10 17:20:00,72.4,56.3,30.07,North,355,3.0,4.0,57,0.00,,,0.00,WeatherCatV1.20B785,2013-08-10 21:20:00,
2013-08-10 17:24:00,72.3,54.2,30.07,NW,311,2.0,7.0,53,0.00,,,0.00,WeatherCatV1.20B785,2013-08-10 21:24:00,
2013-08-10 17:25:00,72.3,56.7,30.07,NNW,340,3.0,3.0,58,0.00,,,0.00,WeatherCatV1.20B785,2013-08-10 21:25:00,
2013-08-10 17:29:00,72.4,55.8,30.07,North,5,0.0,4.0,56,0.00,,,0.00,WeatherCatV1.20B785,2013-08-10 21:29:00,
2013-08-10 17:30:00,72.4,54.8,30.07,NNW,344,2.0,2.0,54,0.00,,,0.00,WeatherCatV1.20B785,2013-08-10 21:30:00,
2013-08-10 17:34:00,72.5,55.4,30.07,NW,311,4.0,6.0,55,0.00,,,0.00,WeatherCatV1.20B785,2013-08-10 21:34:00,
2013-08-10 17:35:00,72.3,54.2,30.07,NNW,339,2.0,4.0,53,0.00,,,0.00,WeatherCatV1.20B785,2013-08-10 21:35:00,
2013-08-10 17:39:00,72.2,53.6,30.07,NNW,348,1.0,4.0,52,0.00,,,0.00,WeatherCatV1.20B785,2013-08-10 21:39:00,
2013-08-10 17:40:00,72.3,55.2,30.07,NNW,330,2.0,2.0,55,0.00,,,0.00,WeatherCatV1.20B785,2013-08-10 21:40:00,
2013-08-10 17:44:00,72.4,55.3,30.07,NNE,12,4.0,5.0,55,0.00,,,0.00,WeatherCatV1.20B785,2013-08-10 21:44:00,
2013-08-10 17:45:00,72.3,55.2,30.07,North,350,2.0,5.0,55,0.00,,,0.00,WeatherCatV1.20B785,2013-08-10 21:45:00,
2013-08-10 17:49:00,72.3,56.2,30.08,NNW,332,1.0,5.0,57,0.00,,,0.00,WeatherCatV1.20B785,2013-08-10 21:49:00,
2013-08-10 17:50:00,72.2,54.6,30.08,NNW,331,2.0,2.0,54,0.00,,,0.00,WeatherCatV1.20B785,2013-08-10 21:50:00,
2013-08-10 17:54:00,72.0,54.9,30.08,NNE,30,3.0,6.0,55,0.00,,,0.00,WeatherCatV1.20B785,2013-08-10 21:54:00,
2013-08-10 17:55:00,71.7,55.6,30.08,NNW,345,2.0,4.0,57,0.00,,,0.00,WeatherCatV1.20B785,2013-08-10 21:55:00,
2013-08-10 17:59:00,71.3,55.3,30.08,WNW,298,0.0,4.0,57,0.00,,,0.00,WeatherCatV1.20B785,2013-08-10 21:59:00,
2013-08-10 18:00:00,71.2,55.2,30.08,NW,325,2.0,2.0,57,0.00,,,0.00,WeatherCatV1.20B785,2013-08-10 22:00:00,
2013-08-10 18:04:00,71.1,56.0,30.08,NNE,15,1.0,1.0,59,0.00,,,0.00,WeatherCatV1.20B785,2013-08-10 22:04:00,
2013-08-10 18:05:00,71.0,56.9,30.08,North,2,1.0,0.0,61,0.00,,,0.00,WeatherCatV1.20B785,2013-08-10 22:05:00,
2013-08-10 18:09:00,70.8,55.3,30.08,NW,307,3.0,3.0,58,0.00,,,0.00,WeatherCatV1.20B785,2013-08-10 22:09:00,
2013-08-10 18:10:00,70.7,55.7,30.08,NNW,337,1.0,3.0,59,0.00,,,0.00,WeatherCatV1.20B785,2013-08-10 22:10:00,
2013-08-10 18:14:00,70.5,55.9,30.08,NNW,338,2.0,3.0,60,0.00,,,0.00,WeatherCatV1.20B785,2013-08-10 22:14:00,
2013-08-10 18:15:00,70.4,56.3,30.08,NNW,337,1.0,1.0,61,0.00,,,0.00,WeatherCatV1.20B785,2013-08-10 22:15:00,
2013-08-10 18:19:00,70.3,56.2,30.08,NNW,338,0.0,1.0,61,0.00,,,0.00,WeatherCatV1.20B785,2013-08-10 22:19:00,
2013-08-10 18:20:00,70.3,56.7,30.08,NNW,337,1.0,0.0,62,0.00,,,0.00,WeatherCatV1.20B785,2013-08-10 22:20:00,
2013-08-10 18:24:00,70.4,56.3,30.08,ENE,75,0.0,2.0,61,0.00,,,0.00,WeatherCatV1.20B785,2013-08-10 22:24:00,
2013-08-10 18:25:00,70.4,56.8,30.08,North,4,0.0,2.0,62,0.00,,,0.00,WeatherCatV1.20B785,2013-08-10 22:25:00,
2013-08-10 18:29:00,70.2,55.2,30.07,NNW,334,1.0,2.0,59,0.00,,,0.00,WeatherCatV1.20B785,2013-08-10 22:29:00,
2013-08-10 18:30:00,70.1,55.6,30.08,NNW,343,1.0,1.0,60,0.00,,,0.00,WeatherCatV1.20B785,2013-08-10 22:30:00,
2013-08-10 18:34:00,70.0,56.4,30.07,NNW,335,0.0,1.0,62,0.00,,,0.00,WeatherCatV1.20B785,2013-08-10 22:34:00,
2013-08-10 18:35:00,70.1,57.8,30.07,NNW,336,0.0,0.0,65,0.00,,,0.00,WeatherCatV1.20B785,2013-08-10 22:35:00,
2013-08-10 18:39:00,70.3,57.1,30.07,NNW,334,0.0,0.0,63,0.00,,,0.00,WeatherCatV1.20B785,2013-08-10 22:39:00,
2013-08-10 18:40:00,70.6,56.5,30.07,NNW,335,0.0,0.0,61,0.00,,,0.00,WeatherCatV1.20B785,2013-08-10 22:40:00,
2013-08-10 18:44:00,70.9,56.8,30.08,NNW,335,0.0,1.0,61,0.00,,,0.00,WeatherCatV1.20B785,2013-08-10 22:44:00,
2013-08-10 18:45:00,71.1,56.5,30.08,NW,312,0.0,1.0,60,0.00,,,0.00,WeatherCatV1.20B785,2013-08-10 22:45:00,
2013-08-10 18:49:00,71.3,56.2,30.08,NNW,342,1.0,2.0,59,0.00,,,0.00,WeatherCatV1.20B785,2013-08-10 22:49:00,
2013-08-10 18:50:00,71.2,56.1,30.08,NW,313,0.0,2.0,59,0.00,,,0.00,WeatherCatV1.20B785,2013-08-10 22:50:00,
2013-08-10 18:54:00,71.1,56.5,30.07,North,9,0.0,1.0,60,0.00,,,0.00,WeatherCatV1.20B785,2013-08-10 22:54:00,
2013-08-10 18:55:00,70.8,55.7,30.07,North,352,0.0,1.0,59,0.00,,,0.00,WeatherCatV1.20B785,2013-08-10 22:55:00,
2013-08-10 18:59:00,70.4,55.8,30.07,NNW,335,0.0,1.0,60,0.00,,,0.00,WeatherCatV1.20B785,2013-08-10 22:59:00,
2013-08-10 19:00:00,70.1,56.0,30.08,NNW,334,0.0,1.0,61,0.00,,,0.00,WeatherCatV1.20B785,2013-08-10 23:00:00,
2013-08-10 19:04:00,69.7,56.1,30.08,NNW,342,0.0,2.0,62,0.00,,,0.00,WeatherCatV1.20B785,2013-08-10 23:04:00,
2013-08-10 19:05:00,69.4,55.8,30.08,NNW,338,0.0,1.0,62,0.00,,,0.00,WeatherCatV1.20B785,2013-08-10 23:05:00,
2013-08-10 19:09:00,69.2,56.5,30.07,North,358,0.0,1.0,64,0.00,,,0.00,WeatherCatV1.20B785,2013-08-10 23:09:00,
2013-08-10 19:10:00,69.0,56.3,30.07,North,353,0.0,0.0,64,0.00,,,0.00,WeatherCatV1.20B785,2013-08-10 23:10:00,
2013-08-10 19:14:00,69.0,57.2,30.07,North,359,0.0,1.0,66,0.00,,,0.00,WeatherCatV1.20B785,2013-08-10 23:14:00,
2013-08-10 19:15:00,68.8,57.0,30.07,North,356,0.0,1.0,66,0.00,,,0.00,WeatherCatV1.20B785,2013-08-10 23:15:00,
2013-08-10 19:19:00,68.7,56.9,30.07,North,350,1.0,2.0,66,0.00,,,0.00,WeatherCatV1.20B785,2013-08-10 23:19:00,
2013-08-10 19:20:00,68.5,56.7,30.07,North,350,0.0,1.0,66,0.00,,,0.00,WeatherCatV1.20B785,2013-08-10 23:20:00,
2013-08-10 19:24:00,68.5,57.1,30.07,NNW,342,1.0,1.0,67,0.00,,,0.00,WeatherCatV1.20B785,2013-08-10 23:24:00,
2013-08-10 19:25:00,68.4,57.0,30.07,NNW,345,0.0,0.0,67,0.00,,,0.00,WeatherCatV1.20B785,2013-08-10 23:25:00,
2013-08-10 19:29:00,68.2,56.8,30.08,NNW,340,0.0,1.0,67,0.00,,,0.00,WeatherCatV1.20B785,2013-08-10 23:29:00,
2013-08-10 19:30:00,68.2,57.2,30.08,NNW,341,0.0,1.0,68,0.00,,,0.00,WeatherCatV1.20B785,2013-08-10 23:30:00,
2013-08-10 19:34:00,67.9,56.5,30.08,NNW,335,0.0,2.0,67,0.00,,,0.00,WeatherCatV1.20B785,2013-08-10 23:34:00,
2013-08-10 19:35:00,67.8,56.4,30.08,NNW,337,0.0,0.0,67,0.00,,,0.00,WeatherCatV1.20B785,2013-08-10 23:35:00,
2013-08-10 19:39:00,67.5,57.0,30.08,NNW,335,0.0,0.0,69,0.00,,,0.00,WeatherCatV1.20B785,2013-08-10 23:39:00,
2013-08-10 19:40:00,67.4,56.9,30.08,NNW,335,0.0,0.0,69,0.00,,,0.00,WeatherCatV1.20B785,2013-08-10 23:40:00,
2013-08-10 19:44:00,67.2,58.2,30.08,NNW,335,0.0,0.0,73,0.00,,,0.00,WeatherCatV1.20B785,2013-08-10 23:44:00,
2013-08-10 19:45:00,67.1,58.2,30.08,NNW,335,0.0,0.0,73,0.00,,,0.00,WeatherCatV1.20B785,2013-08-10 23:45:00,
2013-08-10 19:49:00,66.7,58.5,30.08,NNW,334,0.0,0.0,75,0.00,,,0.00,WeatherCatV1.20B785,2013-08-10 23:49:00,
2013-08-10 19:50:00,66.5,58.7,30.08,NNW,335,0.0,0.0,76,0.00,,,0.00,WeatherCatV1.20B785,2013-08-10 23:50:00,
2013-08-10 19:54:00,65.9,58.5,30.08,WSW,253,0.0,1.0,77,0.00,,,0.00,WeatherCatV1.20B785,2013-08-10 23:54:00,
2013-08-10 19:55:00,65.6,58.5,30.08,WNW,300,0.0,2.0,78,0.00,,,0.00,WeatherCatV1.20B785,2013-08-10 23:55:00,
2013-08-10 19:59:00,64.8,58.1,30.08,SSW,208,0.0,1.0,79,0.00,,,0.00,WeatherCatV1.20B785,2013-08-10 23:59:00,
2013-08-10 20:00:00,64.6,57.9,30.08,SW,236,0.0,0.0,79,0.00,,,0.00,WeatherCatV1.20B785,2013-08-11 00:00:00,
2013-08-10 20:04:00,64.1,57.8,30.08,SSW,208,0.0,0.0,80,0.00,,,0.00,WeatherCatV1.20B785,2013-08-11 00:04:00,
2013-08-10 20:05:00,64.0,57.7,30.08,SW,216,0.0,0.0,80,0.00,,,0.00,WeatherCatV1.20B785,2013-08-11 00:05:00,
2013-08-10 20:09:00,63.7,57.8,30.08,SSW,208,0.0,0.0,81,0.00,,,0.00,WeatherCatV1.20B785,2013-08-11 00:09:00,
2013-08-10 20:10:00,63.6,57.7,30.08,SSW,210,0.0,0.0,81,0.00,,,0.00,WeatherCatV1.20B785,2013-08-11 00:10:00,
2013-08-10 20:14:00,63.2,57.6,30.07,SSW,208,0.0,0.0,82,0.00,,,0.00,WeatherCatV1.20B785,2013-08-11 00:14:00,
2013-08-10 20:15:00,63.0,57.4,30.07,SSW,209,0.0,0.0,82,0.00,,,0.00,WeatherCatV1.20B785,2013-08-11 00:15:00,
2013-08-10 20:19:00,62.6,57.4,30.08,SSW,208,0.0,0.0,83,0.00,,,0.00,WeatherCatV1.20B785,2013-08-11 00:19:00,
2013-08-10 20:20:00,62.4,57.2,30.08,SSW,208,0.0,0.0,83,0.00,,,0.00,WeatherCatV1.20B785,2013-08-11 00:20:00,
2013-08-10 20:24:00,62.1,57.2,30.08,SSW,208,0.0,0.0,84,0.00,,,0.00,WeatherCatV1.20B785,2013-08-11 00:24:00,
2013-08-10 20:25:00,61.9,57.0,30.08,SSW,208,0.0,0.0,84,0.00,,,0.00,WeatherCatV1.20B785,2013-08-11 00:25:00,
2013-08-10 20:29:00,61.8,56.9,30.08,SSW,208,0.0,0.0,84,0.00,,,0.00,WeatherCatV1.20B785,2013-08-11 00:29:00,
2013-08-10 20:30:00,61.6,57.0,30.08,SSW,208,0.0,0.0,85,0.00,,,0.00,WeatherCatV1.20B785,2013-08-11 00:30:00,
2013-08-10 20:34:00,61.3,56.8,30.08,SSW,208,0.0,0.0,85,0.00,,,0.00,WeatherCatV1.20B785,2013-08-11 00:34:00,
2013-08-10 20:35:00,61.1,56.5,30.08,SSW,208,0.0,0.0,85,0.00,,,0.00,WeatherCatV1.20B785,2013-08-11 00:35:00,
2013-08-10 20:39:00,60.9,56.7,30.08,SSW,208,0.0,0.0,86,0.00,,,0.00,WeatherCatV1.20B785,2013-08-11 00:39:00,
2013-08-10 20:40:00,60.8,56.6,30.08,SSW,208,0.0,0.0,86,0.00,,,0.00,WeatherCatV1.20B785,2013-08-11 00:40:00,
2013-08-10 20:44:00,60.6,56.4,30.08,SSW,208,0.0,0.0,86,0.00,,,0.00,WeatherCatV1.20B785,2013-08-11 00:44:00,
2013-08-10 20:45:00,60.4,56.2,30.08,SSW,208,0.0,0.0,86,0.00,,,0.00,WeatherCatV1.20B785,2013-08-11 00:45:00,
2013-08-10 20:49:00,60.3,56.1,30.08,SSW,208,0.0,0.0,86,0.00,,,0.00,WeatherCatV1.20B785,2013-08-11 00:49:00,
2013-08-10 20:50:00,60.0,55.8,30.08,SSW,208,0.0,0.0,86,0.00,,,0.00,WeatherCatV1.20B785,2013-08-11 00:50:00,
2013-08-10 20:54:00,59.8,55.6,30.08,SSW,208,0.0,0.0,86,0.00,,,0.00,WeatherCatV1.20B785,2013-08-11 00:54:00,
2013-08-10 20:55:00,59.6,55.4,30.08,SSW,208,0.0,0.0,86,0.00,,,0.00,WeatherCatV1.20B785,2013-08-11 00:55:00,
2013-08-10 20:59:00,59.2,55.3,30.08,SSW,208,0.0,0.0,87,0.00,,,0.00,WeatherCatV1.20B785,2013-08-11 00:59:00,
2013-08-10 21:00:00,58.9,55.0,30.08,SSW,208,0.0,0.0,87,0.00,,,0.00,WeatherCatV1.20B785,2013-08-11 01:00:00,
2013-08-10 21:04:00,58.6,55.0,30.08,SSW,208,0.0,0.0,88,0.00,,,0.00,WeatherCatV1.20B785,2013-08-11 01:04:00,
2013-08-10 21:05:00,58.5,55.0,30.09,SSW,208,0.0,0.0,88,0.00,,,0.00,WeatherCatV1.20B785,2013-08-11 01:05:00,
2013-08-10 21:09:00,58.1,54.6,30.09,SSW,208,0.0,0.0,88,0.00,,,0.00,WeatherCatV1.20B785,2013-08-11 01:09:00,
2013-08-10 21:10:00,58.0,54.5,30.09,SSW,208,0.0,0.0,88,0.00,,,0.00,WeatherCatV1.20B785,2013-08-11 01:10:00,
2013-08-10 21:14:00,57.7,54.5,30.09,SSW,208,0.0,0.0,89,0.00,,,0.00,WeatherCatV1.20B785,2013-08-11 01:14:00,
2013-08-10 21:15:00,57.6,54.4,30.09,SSW,208,0.0,0.0,89,0.00,,,0.00,WeatherCatV1.20B785,2013-08-11 01:15:00,
2013-08-10 21:19:00,57.4,54.2,30.09,SSW,208,0.0,0.0,89,0.00,,,0.00,WeatherCatV1.20B785,2013-08-11 01:19:00,
2013-08-10 21:20:00,57.2,54.0,30.09,SSW,208,0.0,0.0,89,0.00,,,0.00,WeatherCatV1.20B785,2013-08-11 01:20:00,
2013-08-10 21:24:00,57.1,53.9,30.10,SSW,208,0.0,0.0,89,0.00,,,0.00,WeatherCatV1.20B785,2013-08-11 01:24:00,
2013-08-10 21:25:00,57.1,53.9,30.10,SSW,208,0.0,0.0,89,0.00,,,0.00,WeatherCatV1.20B785,2013-08-11 01:25:00,
2013-08-10 21:29:00,57.0,53.8,30.10,SSW,208,0.0,0.0,89,0.00,,,0.00,WeatherCatV1.20B785,2013-08-11 01:29:00,
2013-08-10 21:30:00,57.0,54.1,30.10,SSW,208,0.0,0.0,90,0.00,,,0.00,WeatherCatV1.20B785,2013-08-11 01:30:00,
2013-08-10 21:34:00,57.1,54.2,30.10,SSW,208,0.0,0.0,90,0.00,,,0.00,WeatherCatV1.20B785,2013-08-11 01:34:00,
2013-08-10 21:35:00,57.1,54.2,30.10,SSW,208,0.0,0.0,90,0.00,,,0.00,WeatherCatV1.20B785,2013-08-11 01:35:00,
2013-08-10 21:39:00,57.2,54.3,30.10,SSW,208,0.0,0.0,90,0.00,,,0.00,WeatherCatV1.20B785,2013-08-11 01:39:00,
2013-08-10 21:40:00,57.2,54.3,30.10,SSW,208,0.0,0.0,90,0.00,,,0.00,WeatherCatV1.20B785,2013-08-11 01:40:00,
2013-08-10 21:44:00,57.3,54.4,30.10,SSW,208,0.0,0.0,90,0.00,,,0.00,WeatherCatV1.20B785,2013-08-11 01:44:00,
2013-08-10 21:45:00,57.4,54.5,30.10,SSW,208,0.0,0.0,90,0.00,,,0.00,WeatherCatV1.20B785,2013-08-11 01:45:00,
2013-08-10 21:49:00,57.4,54.5,30.10,SSW,208,0.0,0.0,90,0.00,,,0.00,WeatherCatV1.20B785,2013-08-11 01:49:00,
2013-08-10 21:50:00,57.4,54.5,30.11,SSW,208,0.0,0.0,90,0.00,,,0.00,WeatherCatV1.20B785,2013-08-11 01:50:00,
2013-08-10 21:54:00,57.4,54.5,30.11,SSW,208,0.0,0.0,90,0.00,,,0.00,WeatherCatV1.20B785,2013-08-11 01:54:00,
2013-08-10 21:55:00,57.4,54.5,30.11,SSW,208,0.0,0.0,90,0.00,,,0.00,WeatherCatV1.20B785,2013-08-11 01:55:00,
2013-08-10 21:59:00,57.4,54.5,30.11,SSW,208,0.0,0.0,90,0.00,,,0.00,WeatherCatV1.20B785,2013-08-11 01:59:00,
2013-08-10 22:00:00,57.4,54.5,30.11,SSW,208,0.0,0.0,90,0.00,,,0.00,WeatherCatV1.20B785,2013-08-11 02:00:00,
2013-08-10 22:04:00,57.4,54.5,30.11,SSW,208,0.0,0.0,90,0.00,,,0.00,WeatherCatV1.20B785,2013-08-11 02:04:00,
2013-08-10 22:05:00,57.4,54.5,30.11,SSW,208,0.0,0.0,90,0.00,,,0.00,WeatherCatV1.20B785,2013-08-11 02:05:00,
2013-08-10 22:09:00,57.4,54.5,30.11,SSW,208,0.0,0.0,90,0.00,,,0.00,WeatherCatV1.20B785,2013-08-11 02:09:00,
2013-08-10 22:10:00,57.5,54.6,30.11,SSW,208,0.0,0.0,90,0.00,,,0.00,WeatherCatV1.20B785,2013-08-11 02:10:00,
2013-08-10 22:14:00,57.5,54.6,30.11,SSW,208,0.0,0.0,90,0.00,,,0.00,WeatherCatV1.20B785,2013-08-11 02:14:00,
2013-08-10 22:15:00,57.5,54.6,30.11,SSW,208,0.0,0.0,90,0.00,,,0.00,WeatherCatV1.20B785,2013-08-11 02:15:00,
2013-08-10 22:19:00,57.6,54.7,30.11,SSW,208,0.0,0.0,90,0.00,,,0.00,WeatherCatV1.20B785,2013-08-11 02:19:00,
2013-08-10 22:20:00,57.7,54.8,30.11,SSW,208,0.0,0.0,90,0.00,,,0.00,WeatherCatV1.20B785,2013-08-11 02:20:00,
2013-08-10 22:24:00,57.8,54.9,30.10,SSW,208,0.0,0.0,90,0.00,,,0.00,WeatherCatV1.20B785,2013-08-11 02:24:00,
2013-08-10 22:25:00,57.8,54.9,30.10,SSW,208,0.0,0.0,90,0.00,,,0.00,WeatherCatV1.20B785,2013-08-11 02:25:00,
2013-08-10 22:29:00,57.9,55.0,30.10,SSW,208,0.0,0.0,90,0.00,,,0.00,WeatherCatV1.20B785,2013-08-11 02:29:00,
2013-08-10 22:30:00,57.9,55.0,30.10,SSW,208,0.0,0.0,90,0.00,,,0.00,WeatherCatV1.20B785,2013-08-11 02:30:00,
2013-08-10 22:34:00,57.9,55.0,30.10,SSW,208,0.0,0.0,90,0.00,,,0.00,WeatherCatV1.20B785,2013-08-11 02:34:00,
2013-08-10 22:35:00,57.9,55.0,30.11,SSW,208,0.0,0.0,90,0.00,,,0.00,WeatherCatV1.20B785,2013-08-11 02:35:00,
2013-08-10 22:39:00,58.0,55.1,30.10,SSW,208,0.0,0.0,90,0.00,,,0.00,WeatherCatV1.20B785,2013-08-11 02:39:00,
2013-08-10 22:40:00,58.0,55.1,30.10,SSW,208,0.0,0.0,90,0.00,,,0.00,WeatherCatV1.20B785,2013-08-11 02:40:00,
2013-08-10 22:44:00,58.0,55.1,30.10,SSW,208,0.0,0.0,90,0.00,,,0.00,WeatherCatV1.20B785,2013-08-11 02:44:00,
2013-08-10 22:45:00,58.0,55.1,30.10,SSW,208,0.0,0.0,90,0.00,,,0.00,WeatherCatV1.20B785,2013-08-11 02:45:00,
2013-08-10 22:49:00,58.0,55.1,30.11,SSW,208,0.0,0.0,90,0.00,,,0.00,WeatherCatV1.20B785,2013-08-11 02:49:00,
2013-08-10 22:50:00,58.1,55.2,30.10,SSW,208,0.0,0.0,90,0.00,,,0.00,WeatherCatV1.20B785,2013-08-11 02:50:00,
2013-08-10 22:54:00,58.3,55.7,30.10,SSW,208,0.0,0.0,91,0.00,,,0.00,WeatherCatV1.20B785,2013-08-11 02:54:00,
2013-08-10 22:55:00,58.3,55.7,30.11,SSW,208,0.0,0.0,91,0.00,,,0.00,WeatherCatV1.20B785,2013-08-11 02:55:00,
2013-08-10 22:59:00,58.3,55.4,30.11,SSW,208,0.0,0.0,90,0.00,,,0.00,WeatherCatV1.20B785,2013-08-11 02:59:00,
2013-08-10 23:00:00,58.3,55.4,30.10,SSW,208,0.0,0.0,90,0.00,,,0.00,WeatherCatV1.20B785,2013-08-11 03:00:00,
2013-08-10 23:04:00,58.4,55.5,30.10,SSW,208,0.0,0.0,90,0.00,,,0.00,WeatherCatV1.20B785,2013-08-11 03:04:00,
2013-08-10 23:05:00,58.4,55.5,30.10,SSW,208,0.0,0.0,90,0.00,,,0.00,WeatherCatV1.20B785,2013-08-11 03:05:00,
2013-08-10 23:09:00,58.4,55.5,30.10,SSW,208,0.0,0.0,90,0.00,,,0.00,WeatherCatV1.20B785,2013-08-11 03:09:00,
2013-08-10 23:10:00,58.4,55.5,30.10,SSW,208,0.0,0.0,90,0.00,,,0.00,WeatherCatV1.20B785,2013-08-11 03:10:00,
2013-08-10 23:14:00,58.4,55.8,30.09,SSW,208,0.0,0.0,91,0.00,,,0.00,WeatherCatV1.20B785,2013-08-11 03:14:00,
2013-08-10 23:15:00,58.4,55.8,30.09,SSW,208,0.0,0.0,91,0.00,,,0.00,WeatherCatV1.20B785,2013-08-11 03:15:00,
2013-08-10 23:20:00,58.5,55.9,30.09,SSW,208,0.0,0.0,91,0.00,,,0.00,WeatherCatV1.20B785,2013-08-11 03:20:00,
2013-08-10 23:25:00,58.4,55.8,30.10,SSW,208,0.0,0.0,91,0.00,,,0.00,WeatherCatV1.20B785,2013-08-11 03:25:00,
2013-08-10 23:30:00,58.4,55.8,30.10,SSW,208,0.0,0.0,91,0.00,,,0.00,WeatherCatV1.20B785,2013-08-11 03:30:00,
2013-08-10 23:35:00,58.4,55.8,30.10,SSW,208,0.0,0.0,91,0.00,,,0.00,WeatherCatV1.20B785,2013-08-11 03:35:00,
2013-08-10 23:40:00,58.6,56.0,30.10,SSW,208,0.0,0.0,91,0.00,,,0.00,WeatherCatV1.20B785,2013-08-11 03:40:00,
2013-08-10 23:45:00,58.6,56.0,30.10,SSW,208,0.0,0.0,91,0.00,,,0.00,WeatherCatV1.20B785,2013-08-11 03:45:00,
2013-08-10 23:50:00,58.6,56.0,30.10,SSW,208,0.0,0.0,91,0.00,,,0.00,WeatherCatV1.20B785,2013-08-11 03:50:00,
2013-08-10 23:55:00,58.5,55.9,30.10,SSW,208,0.0,0.0,91,0.00,,,0.00,WeatherCatV1.20B785,2013-08-11 03:55:00,